Wetterdaten: Samstag, 01.10.2016
Datum Zeit Temp. A. Feuchte A. Luftdruck Regen Wind Richtung Richtung Sonnenschein ET UV Solar Taupunkt Windchill Windben Empfang
01.10.2016 00:00 14,1 C 89 % 1013,8 hPa 0,0 l/m 2,2 km/h (1 Bft) SW 217 0 min 0,000 mm 0,0 UV-I 0 W/m 12,3 C 14,1 C 3,2 km/h (1 Bft) 100,00 %
01.10.2016 00:02 13,9 C 89 % 1013,7 hPa 0,0 l/m 2,9 km/h (1 Bft) S 186 0 min 0,000 mm 0,0 UV-I 0 W/m 12,1 C 13,9 C 3,2 km/h (1 Bft) 97,37 %
01.10.2016 00:04 13,8 C 89 % 1013,7 hPa 0,0 l/m 3,1 km/h (1 Bft) S 186 0 min 0,000 mm 0,0 UV-I 0 W/m 12,0 C 13,8 C 4,8 km/h (1 Bft) 100,00 %
01.10.2016 00:06 13,7 C 89 % 1013,7 hPa 0,0 l/m 0,4 km/h (0 Bft) S 186 0 min 0,000 mm 0,0 UV-I 0 W/m 11,9 C 13,7 C 1,6 km/h (1 Bft) 97,87 %
01.10.2016 00:08 13,6 C 90 % 1013,7 hPa 0,0 l/m 1,3 km/h (1 Bft) S 186 0 min 0,000 mm 0,0 UV-I 0 W/m 12,0 C 13,6 C 3,2 km/h (1 Bft) 100,00 %
01.10.2016 00:10 13,6 C 91 % 1013,7 hPa 0,0 l/m 2,4 km/h (1 Bft) S 186 0 min 0,000 mm 0,0 UV-I 0 W/m 12,2 C 13,6 C 4,8 km/h (1 Bft) 100,00 %
01.10.2016 00:12 13,6 C 91 % 1013,7 hPa 0,0 l/m 2,8 km/h (1 Bft) S 186 0 min 0,000 mm 0,0 UV-I 0 W/m 12,2 C 13,6 C 4,8 km/h (1 Bft) 100,00 %
01.10.2016 00:14 13,6 C 91 % 1013,7 hPa 0,0 l/m 3,3 km/h (1 Bft) S 186 0 min 0,000 mm 0,0 UV-I 0 W/m 12,2 C 13,6 C 4,8 km/h (1 Bft) 100,00 %
01.10.2016 00:16 13,4 C 90 % 1013,6 hPa 0,0 l/m 4,0 km/h (1 Bft) S 186 0 min 0,000 mm 0,0 UV-I 0 W/m 11,8 C 13,4 C 4,8 km/h (1 Bft) 100,00 %
01.10.2016 00:18 13,4 C 90 % 1013,7 hPa 0,0 l/m 3,7 km/h (1 Bft) S 186 0 min 0,000 mm 0,0 UV-I 0 W/m 11,8 C 13,4 C 4,8 km/h (1 Bft) 97,87 %
01.10.2016 00:20 13,4 C 91 % 1013,7 hPa 0,0 l/m 2,9 km/h (1 Bft) S 186 0 min 0,000 mm 0,0 UV-I 0 W/m 12,0 C 13,4 C 4,8 km/h (1 Bft) 98,00 %
01.10.2016 00:22 13,4 C 91 % 1013,7 hPa 0,0 l/m 1,4 km/h (1 Bft) S 186 0 min 0,000 mm 0,0 UV-I 0 W/m 12,0 C 13,4 C 3,2 km/h (1 Bft) 100,00 %
01.10.2016 00:24 13,3 C 91 % 1013,7 hPa 0,0 l/m 0,2 km/h (0 Bft) S 186 0 min 0,000 mm 0,0 UV-I 0 W/m 11,9 C 13,3 C 1,6 km/h (1 Bft) 100,00 %
01.10.2016 00:26 13,3 C 91 % 1013,6 hPa 0,0 l/m 0,6 km/h (0 Bft) S 186 0 min 0,000 mm 0,0 UV-I 0 W/m 11,9 C 13,3 C 1,6 km/h (1 Bft) 100,00 %
01.10.2016 00:28 13,1 C 90 % 1013,7 hPa 0,0 l/m 2,4 km/h (1 Bft) S 186 0 min 0,000 mm 0,0 UV-I 0 W/m 11,5 C 13,1 C 4,8 km/h (1 Bft) 98,00 %
01.10.2016 00:30 13,1 C 91 % 1013,6 hPa 0,0 l/m 2,8 km/h (1 Bft) S 186 0 min 0,000 mm 0,0 UV-I 0 W/m 11,7 C 13,1 C 3,2 km/h (1 Bft) 97,56 %
01.10.2016 00:32 13,0 C 92 % 1013,6 hPa 0,0 l/m 3,8 km/h (1 Bft) S 181 0 min 0,000 mm 0,0 UV-I 0 W/m 11,7 C 13,0 C 4,8 km/h (1 Bft) 100,00 %
01.10.2016 00:34 12,9 C 92 % 1013,6 hPa 0,0 l/m 2,6 km/h (1 Bft) S 180 0 min 0,000 mm 0,0 UV-I 0 W/m 11,6 C 12,9 C 4,8 km/h (1 Bft) 97,87 %
01.10.2016 00:36 12,9 C 92 % 1013,6 hPa 0,0 l/m 0,9 km/h (0 Bft) S 180 0 min 0,000 mm 0,0 UV-I 0 W/m 11,6 C 12,9 C 3,2 km/h (1 Bft) 100,00 %
01.10.2016 00:38 12,9 C 92 % 1013,6 hPa 0,0 l/m 0,5 km/h (0 Bft) S 180 0 min 0,000 mm 0,0 UV-I 0 W/m 11,6 C 12,9 C 1,6 km/h (1 Bft) 98,00 %
01.10.2016 00:40 12,8 C 92 % 1013,6 hPa 0,0 l/m 3,6 km/h (1 Bft) S 180 0 min 0,000 mm 0,0 UV-I 0 W/m 11,5 C 12,8 C 4,8 km/h (1 Bft) 95,74 %
01.10.2016 00:42 12,8 C 93 % 1013,6 hPa 0,0 l/m 3,8 km/h (1 Bft) S 180 0 min 0,000 mm 0,0 UV-I 0 W/m 11,7 C 12,8 C 4,8 km/h (1 Bft) 100,00 %
01.10.2016 00:44 12,9 C 93 % 1013,6 hPa 0,0 l/m 2,5 km/h (1 Bft) S 180 0 min 0,000 mm 0,0 UV-I 0 W/m 11,8 C 12,9 C 4,8 km/h (1 Bft) 95,45 %
01.10.2016 00:46 13,0 C 93 % 1013,5 hPa 0,0 l/m 0,6 km/h (0 Bft) S 180 0 min 0,000 mm 0,0 UV-I 0 W/m 11,9 C 13,0 C 1,6 km/h (1 Bft) 98,11 %
01.10.2016 00:48 13,1 C 93 % 1013,5 hPa 0,0 l/m 1,1 km/h (1 Bft) S 180 0 min 0,000 mm 0,0 UV-I 0 W/m 12,0 C 13,1 C 3,2 km/h (1 Bft) 98,00 %
01.10.2016 00:50 13,1 C 92 % 1013,5 hPa 0,0 l/m 1,2 km/h (1 Bft) S 180 0 min 0,000 mm 0,0 UV-I 0 W/m 11,8 C 13,1 C 3,2 km/h (1 Bft) 97,56 %
01.10.2016 00:52 13,1 C 92 % 1013,5 hPa 0,0 l/m 0,8 km/h (0 Bft) S 180 0 min 0,000 mm 0,0 UV-I 0 W/m 11,8 C 13,1 C 1,6 km/h (1 Bft) 96,23 %
01.10.2016 00:54 12,9 C 91 % 1013,4 hPa 0,0 l/m 1,6 km/h (1 Bft) S 180 0 min 0,000 mm 0,0 UV-I 0 W/m 11,5 C 12,9 C 3,2 km/h (1 Bft) 97,37 %
01.10.2016 00:56 12,9 C 92 % 1013,5 hPa 0,0 l/m 3,0 km/h (1 Bft) S 179 0 min 0,000 mm 0,0 UV-I 0 W/m 11,6 C 12,9 C 4,8 km/h (1 Bft) 98,00 %
01.10.2016 00:58 12,8 C 92 % 1013,4 hPa 0,0 l/m 2,2 km/h (1 Bft) S 179 0 min 0,000 mm 0,0 UV-I 0 W/m 11,5 C 12,8 C 3,2 km/h (1 Bft) 96,23 %
01.10.2016 01:00 12,8 C 92 % 1013,4 hPa 0,0 l/m 1,2 km/h (1 Bft) S 179 0 min 0,000 mm 0,0 UV-I 0 W/m 11,5 C 12,8 C 3,2 km/h (1 Bft) 94,87 %
01.10.2016 01:02 12,7 C 92 % 1013,4 hPa 0,0 l/m 1,4 km/h (1 Bft) S 179 0 min 0,000 mm 0,0 UV-I 0 W/m 11,4 C 12,7 C 1,6 km/h (1 Bft) 98,00 %
01.10.2016 01:04 12,7 C 92 % 1013,4 hPa 0,0 l/m 0,8 km/h (0 Bft) S 179 0 min 0,000 mm 0,0 UV-I 0 W/m 11,4 C 12,7 C 1,6 km/h (1 Bft) 97,87 %
01.10.2016 01:06 12,7 C 92 % 1013,4 hPa 0,0 l/m 0,0 km/h (0 Bft) S 179 0 min 0,000 mm 0,0 UV-I 0 W/m 11,4 C 12,7 C 0,0 km/h (0 Bft) 97,87 %
01.10.2016 01:08 12,7 C 92 % 1013,4 hPa 0,0 l/m 0,0 km/h (0 Bft) S 179 0 min 0,000 mm 0,0 UV-I 0 W/m 11,4 C 12,7 C 0,0 km/h (0 Bft) 93,62 %
01.10.2016 01:10 12,7 C 92 % 1013,4 hPa 0,0 l/m 0,0 km/h (0 Bft) S 179 0 min 0,000 mm 0,0 UV-I 0 W/m 11,4 C 12,7 C 0,0 km/h (0 Bft) 94,00 %
01.10.2016 01:12 12,7 C 93 % 1013,4 hPa 0,0 l/m 0,0 km/h (0 Bft) S 179 0 min 0,000 mm 0,0 UV-I 0 W/m 11,6 C 12,7 C 0,0 km/h (0 Bft) 97,87 %
01.10.2016 01:14 12,6 C 93 % 1013,4 hPa 0,0 l/m 0,0 km/h (0 Bft) S 179 0 min 0,000 mm 0,0 UV-I 0 W/m 11,5 C 12,6 C 0,0 km/h (0 Bft) 97,87 %
01.10.2016 01:16 12,6 C 93 % 1013,5 hPa 0,0 l/m 0,0 km/h (0 Bft) S 179 0 min 0,000 mm 0,0 UV-I 0 W/m 11,5 C 12,6 C 0,0 km/h (0 Bft) 97,87 %
01.10.2016 01:18 12,5 C 93 % 1013,5 hPa 0,0 l/m 0,0 km/h (0 Bft) S 179 0 min 0,000 mm 0,0 UV-I 0 W/m 11,4 C 12,5 C 1,6 km/h (1 Bft) 97,87 %
01.10.2016 01:20 12,5 C 93 % 1013,5 hPa 0,0 l/m 0,0 km/h (0 Bft) S 179 0 min 0,000 mm 0,0 UV-I 0 W/m 11,4 C 12,5 C 0,0 km/h (0 Bft) 100,00 %
01.10.2016 01:22 12,4 C 93 % 1013,5 hPa 0,0 l/m 0,0 km/h (0 Bft) S 179 0 min 0,000 mm 0,0 UV-I 0 W/m 11,3 C 12,4 C 0,0 km/h (0 Bft) 95,65 %
01.10.2016 01:24 12,3 C 92 % 1013,5 hPa 0,0 l/m 0,0 km/h (0 Bft) S 179 0 min 0,000 mm 0,0 UV-I 0 W/m 11,0 C 12,3 C 0,0 km/h (0 Bft) 100,00 %
01.10.2016 01:26 12,3 C 93 % 1013,5 hPa 0,0 l/m 0,0 km/h (0 Bft) S 179 0 min 0,000 mm 0,0 UV-I 0 W/m 11,2 C 12,3 C 0,0 km/h (0 Bft) 100,00 %
01.10.2016 01:28 12,4 C 93 % 1013,5 hPa 0,0 l/m 0,0 km/h (0 Bft) S 179 0 min 0,000 mm 0,0 UV-I 0 W/m 11,3 C 12,4 C 0,0 km/h (0 Bft) 100,00 %
01.10.2016 01:30 12,4 C 93 % 1013,5 hPa 0,0 l/m 0,0 km/h (0 Bft) S 179 0 min 0,000 mm 0,0 UV-I 0 W/m 11,3 C 12,4 C 0,0 km/h (0 Bft) 100,00 %
01.10.2016 01:32 12,4 C 93 % 1013,4 hPa 0,0 l/m 0,0 km/h (0 Bft) S 179 0 min 0,000 mm 0,0 UV-I 0 W/m 11,3 C 12,4 C 0,0 km/h (0 Bft) 100,00 %
01.10.2016 01:34 12,4 C 93 % 1013,4 hPa 0,0 l/m 0,9 km/h (0 Bft) S 179 0 min 0,000 mm 0,0 UV-I 0 W/m 11,3 C 12,4 C 3,2 km/h (1 Bft) 100,00 %
01.10.2016 01:36 12,3 C 92 % 1013,4 hPa 0,0 l/m 3,1 km/h (1 Bft) S 178 0 min 0,000 mm 0,0 UV-I 0 W/m 11,0 C 12,3 C 4,8 km/h (1 Bft) 100,00 %
01.10.2016 01:38 12,2 C 92 % 1013,4 hPa 0,0 l/m 4,1 km/h (1 Bft) S 178 0 min 0,000 mm 0,0 UV-I 0 W/m 10,9 C 12,2 C 4,8 km/h (1 Bft) 100,00 %
01.10.2016 01:40 12,2 C 93 % 1013,4 hPa 0,0 l/m 4,2 km/h (1 Bft) S 175 0 min 0,000 mm 0,0 UV-I 0 W/m 11,1 C 12,2 C 6,4 km/h (2 Bft) 100,00 %
01.10.2016 01:42 12,2 C 92 % 1013,4 hPa 0,0 l/m 4,4 km/h (1 Bft) S 172 0 min 0,000 mm 0,0 UV-I 0 W/m 10,9 C 12,2 C 8,0 km/h (2 Bft) 100,00 %
01.10.2016 01:44 12,2 C 93 % 1013,3 hPa 0,0 l/m 6,8 km/h (2 Bft) S-SO 159 0 min 0,000 mm 0,0 UV-I 0 W/m 11,1 C 11,9 C 8,0 km/h (2 Bft) 100,00 %
01.10.2016 01:46 12,3 C 93 % 1013,3 hPa 0,0 l/m 5,2 km/h (1 Bft) SO 146 0 min 0,000 mm 0,0 UV-I 0 W/m 11,2 C 12,3 C 8,0 km/h (2 Bft) 100,00 %
01.10.2016 01:48 12,3 C 92 % 1013,3 hPa 0,0 l/m 3,7 km/h (1 Bft) SO 146 0 min 0,000 mm 0,0 UV-I 0 W/m 11,0 C 12,3 C 6,4 km/h (2 Bft) 98,00 %
01.10.2016 01:50 12,3 C 92 % 1013,2 hPa 0,0 l/m 1,2 km/h (1 Bft) SO 146 0 min 0,000 mm 0,0 UV-I 0 W/m 11,0 C 12,3 C 3,2 km/h (1 Bft) 100,00 %
01.10.2016 01:52 12,3 C 92 % 1013,2 hPa 0,0 l/m 0,2 km/h (0 Bft) SO 146 0 min 0,000 mm 0,0 UV-I 0 W/m 11,0 C 12,3 C 1,6 km/h (1 Bft) 98,00 %
01.10.2016 01:54 12,3 C 92 % 1013,2 hPa 0,0 l/m 0,1 km/h (0 Bft) SO 146 0 min 0,000 mm 0,0 UV-I 0 W/m 11,0 C 12,3 C 1,6 km/h (1 Bft) 97,87 %
01.10.2016 01:56 12,3 C 92 % 1013,2 hPa 0,0 l/m 0,5 km/h (0 Bft) SO 146 0 min 0,000 mm 0,0 UV-I 0 W/m 11,0 C 12,3 C 1,6 km/h (1 Bft) 97,87 %
01.10.2016 01:58 12,2 C 92 % 1013,2 hPa 0,0 l/m 1,5 km/h (1 Bft) SO 146 0 min 0,000 mm 0,0 UV-I 0 W/m 10,9 C 12,2 C 3,2 km/h (1 Bft) 97,73 %
01.10.2016 02:00 12,2 C 92 % 1013,2 hPa 0,0 l/m 3,1 km/h (1 Bft) SO 146 0 min 0,000 mm 0,0 UV-I 0 W/m 10,9 C 12,2 C 4,8 km/h (1 Bft) 98,11 %
01.10.2016 02:02 12,2 C 92 % 1013,1 hPa 0,0 l/m 3,1 km/h (1 Bft) SO 146 0 min 0,000 mm 0,0 UV-I 0 W/m 10,9 C 12,2 C 4,8 km/h (1 Bft) 100,00 %
01.10.2016 02:04 12,1 C 92 % 1013,1 hPa 0,0 l/m 3,5 km/h (1 Bft) SO 146 0 min 0,000 mm 0,0 UV-I 0 W/m 10,8 C 12,1 C 4,8 km/h (1 Bft) 100,00 %
01.10.2016 02:06 12,1 C 92 % 1013,1 hPa 0,0 l/m 3,4 km/h (1 Bft) SO 146 0 min 0,000 mm 0,0 UV-I 0 W/m 10,8 C 12,1 C 4,8 km/h (1 Bft) 100,00 %
01.10.2016 02:08 11,9 C 92 % 1013,0 hPa 0,0 l/m 2,6 km/h (1 Bft) SO 146 0 min 0,000 mm 0,0 UV-I 0 W/m 10,6 C 11,9 C 3,2 km/h (1 Bft) 98,11 %
01.10.2016 02:10 11,9 C 92 % 1013,0 hPa 0,0 l/m 2,1 km/h (1 Bft) SO 146 0 min 0,000 mm 0,0 UV-I 0 W/m 10,6 C 11,9 C 3,2 km/h (1 Bft) 97,37 %
01.10.2016 02:12 11,8 C 92 % 1013,0 hPa 0,0 l/m 0,5 km/h (0 Bft) SO 146 0 min 0,000 mm 0,0 UV-I 0 W/m 10,5 C 11,8 C 1,6 km/h (1 Bft) 100,00 %
01.10.2016 02:14 11,8 C 93 % 1013,0 hPa 0,0 l/m 0,7 km/h (0 Bft) SO 146 0 min 0,000 mm 0,0 UV-I 0 W/m 10,7 C 11,8 C 1,6 km/h (1 Bft) 100,00 %
01.10.2016 02:16 11,7 C 93 % 1013,0 hPa 0,0 l/m 0,9 km/h (0 Bft) SO 146 0 min 0,000 mm 0,0 UV-I 0 W/m 10,6 C 11,7 C 3,2 km/h (1 Bft) 97,87 %
01.10.2016 02:18 11,7 C 93 % 1013,0 hPa 0,0 l/m 2,2 km/h (1 Bft) SO 146 0 min 0,000 mm 0,0 UV-I 0 W/m 10,6 C 11,7 C 3,2 km/h (1 Bft) 100,00 %
01.10.2016 02:20 11,7 C 93 % 1013,0 hPa 0,0 l/m 3,0 km/h (1 Bft) SO 146 0 min 0,000 mm 0,0 UV-I 0 W/m 10,6 C 11,7 C 3,2 km/h (1 Bft) 98,11 %
01.10.2016 02:22 11,8 C 93 % 1013,0 hPa 0,0 l/m 3,1 km/h (1 Bft) SO 146 0 min 0,000 mm 0,0 UV-I 0 W/m 10,7 C 11,8 C 4,8 km/h (1 Bft) 100,00 %
01.10.2016 02:24 11,8 C 93 % 1013,0 hPa 0,0 l/m 2,8 km/h (1 Bft) SO 146 0 min 0,000 mm 0,0 UV-I 0 W/m 10,7 C 11,8 C 3,2 km/h (1 Bft) 97,37 %
01.10.2016 02:26 11,8 C 93 % 1013,0 hPa 0,0 l/m 1,2 km/h (1 Bft) SO 146 0 min 0,000 mm 0,0 UV-I 0 W/m 10,7 C 11,8 C 3,2 km/h (1 Bft) 100,00 %
01.10.2016 02:28 11,7 C 93 % 1013,0 hPa 0,0 l/m 0,1 km/h (0 Bft) SO 146 0 min 0,000 mm 0,0 UV-I 0 W/m 10,6 C 11,7 C 1,6 km/h (1 Bft) 100,00 %
01.10.2016 02:30 11,6 C 92 % 1013,0 hPa 0,0 l/m 0,6 km/h (0 Bft) SO 146 0 min 0,000 mm 0,0 UV-I 0 W/m 10,3 C 11,6 C 1,6 km/h (1 Bft) 98,00 %
01.10.2016 02:32 11,5 C 93 % 1013,0 hPa 0,0 l/m 0,2 km/h (0 Bft) SO 146 0 min 0,000 mm 0,0 UV-I 0 W/m 10,4 C 11,5 C 1,6 km/h (1 Bft) 97,87 %
01.10.2016 02:34 11,6 C 93 % 1013,0 hPa 0,0 l/m 0,0 km/h (0 Bft) SO 146 0 min 0,000 mm 0,0 UV-I 0 W/m 10,5 C 11,6 C 0,0 km/h (0 Bft) 100,00 %
01.10.2016 02:36 11,6 C 94 % 1012,9 hPa 0,0 l/m 0,0 km/h (0 Bft) SO 146 0 min 0,000 mm 0,0 UV-I 0 W/m 10,7 C 11,6 C 0,0 km/h (0 Bft) 97,87 %
01.10.2016 02:38 11,7 C 94 % 1012,9 hPa 0,0 l/m 0,0 km/h (0 Bft) SO 146 0 min 0,000 mm 0,0 UV-I 0 W/m 10,8 C 11,7 C 0,0 km/h (0 Bft) 100,00 %
01.10.2016 02:40 11,7 C 93 % 1012,9 hPa 0,0 l/m 0,0 km/h (0 Bft) SO 146 0 min 0,000 mm 0,0 UV-I 0 W/m 10,6 C 11,7 C 0,0 km/h (0 Bft) 100,00 %
01.10.2016 02:42 11,7 C 93 % 1012,9 hPa 0,0 l/m 0,0 km/h (0 Bft) SO 146 0 min 0,000 mm 0,0 UV-I 0 W/m 10,6 C 11,7 C 0,0 km/h (0 Bft) 95,74 %
01.10.2016 02:44 11,7 C 93 % 1012,8 hPa 0,0 l/m 0,0 km/h (0 Bft) SO 146 0 min 0,000 mm 0,0 UV-I 0 W/m 10,6 C 11,7 C 0,0 km/h (0 Bft) 97,87 %
01.10.2016 02:46 11,6 C 93 % 1012,8 hPa 0,0 l/m 1,4 km/h (1 Bft) SO 146 0 min 0,000 mm 0,0 UV-I 0 W/m 10,5 C 11,6 C 3,2 km/h (1 Bft) 100,00 %
01.10.2016 02:48 11,6 C 93 % 1012,8 hPa 0,0 l/m 2,0 km/h (1 Bft) SO 146 0 min 0,000 mm 0,0 UV-I 0 W/m 10,5 C 11,6 C 3,2 km/h (1 Bft) 97,87 %
01.10.2016 02:50 11,4 C 93 % 1012,8 hPa 0,0 l/m 2,5 km/h (1 Bft) SO 146 0 min 0,000 mm 0,0 UV-I 0 W/m 10,3 C 11,4 C 3,2 km/h (1 Bft) 96,30 %
01.10.2016 02:52 11,4 C 93 % 1012,8 hPa 0,0 l/m 1,7 km/h (1 Bft) SO 146 0 min 0,000 mm 0,0 UV-I 0 W/m 10,3 C 11,4 C 3,2 km/h (1 Bft) 97,01 %
01.10.2016 02:54 11,3 C 93 % 1012,8 hPa 0,0 l/m 0,7 km/h (0 Bft) SO 146 0 min 0,000 mm 0,0 UV-I 0 W/m 10,2 C 11,3 C 1,6 km/h (1 Bft) 97,37 %
01.10.2016 02:56 11,3 C 93 % 1012,8 hPa 0,0 l/m 0,0 km/h (0 Bft) SO 146 0 min 0,000 mm 0,0 UV-I 0 W/m 10,2 C 11,3 C 0,0 km/h (0 Bft) 97,87 %
01.10.2016 02:58 11,3 C 94 % 1012,7 hPa 0,0 l/m 0,0 km/h (0 Bft) SO 146 0 min 0,000 mm 0,0 UV-I 0 W/m 10,4 C 11,3 C 0,0 km/h (0 Bft) 97,92 %
01.10.2016 03:00 11,3 C 94 % 1012,7 hPa 0,0 l/m 0,0 km/h (0 Bft) SO 146 0 min 0,000 mm 0,0 UV-I 0 W/m 10,4 C 11,3 C 0,0 km/h (0 Bft) 95,74 %
01.10.2016 03:02 11,3 C 94 % 1012,7 hPa 0,0 l/m 0,0 km/h (0 Bft) SO 146 0 min 0,000 mm 0,0 UV-I 0 W/m 10,4 C 11,3 C 0,0 km/h (0 Bft) 91,49 %
01.10.2016 03:04 11,3 C 94 % 1012,7 hPa 0,0 l/m 0,0 km/h (0 Bft) SO 146 0 min 0,000 mm 0,0 UV-I 0 W/m 10,4 C 11,3 C 0,0 km/h (0 Bft) 97,87 %
01.10.2016 03:06 11,3 C 94 % 1012,6 hPa 0,0 l/m 0,0 km/h (0 Bft) SO 146 0 min 0,000 mm 0,0 UV-I 0 W/m 10,4 C 11,3 C 0,0 km/h (0 Bft) 97,87 %
01.10.2016 03:08 11,2 C 94 % 1012,6 hPa 0,0 l/m 0,0 km/h (0 Bft) SO 146 0 min 0,000 mm 0,0 UV-I 0 W/m 10,3 C 11,2 C 0,0 km/h (0 Bft) 97,87 %
01.10.2016 03:10 11,2 C 94 % 1012,6 hPa 0,0 l/m 0,0 km/h (0 Bft) SO 146 0 min 0,000 mm 0,0 UV-I 0 W/m 10,3 C 11,2 C 0,0 km/h (0 Bft) 97,56 %
01.10.2016 03:12 11,2 C 94 % 1012,6 hPa 0,0 l/m 0,0 km/h (0 Bft) SO 146 0 min 0,000 mm 0,0 UV-I 0 W/m 10,3 C 11,2 C 0,0 km/h (0 Bft) 96,23 %
01.10.2016 03:14 11,2 C 94 % 1012,6 hPa 0,0 l/m 0,0 km/h (0 Bft) SO 146 0 min 0,000 mm 0,0 UV-I 0 W/m 10,3 C 11,2 C 0,0 km/h (0 Bft) 96,00 %
01.10.2016 03:16 11,1 C 94 % 1012,5 hPa 0,0 l/m 0,0 km/h (0 Bft) SO 146 0 min 0,000 mm 0,0 UV-I 0 W/m 10,2 C 11,1 C 1,6 km/h (1 Bft) 98,00 %
01.10.2016 03:18 11,1 C 93 % 1012,4 hPa 0,0 l/m 1,8 km/h (1 Bft) SO 146 0 min 0,000 mm 0,0 UV-I 0 W/m 10,0 C 11,1 C 3,2 km/h (1 Bft) 97,14 %
01.10.2016 03:20 11,0 C 93 % 1012,4 hPa 0,0 l/m 1,2 km/h (1 Bft) SO 146 0 min 0,000 mm 0,0 UV-I 0 W/m 9,9 C 11,0 C 1,6 km/h (1 Bft) 98,11 %
01.10.2016 03:22 10,9 C 93 % 1012,4 hPa 0,0 l/m 0,6 km/h (0 Bft) SO 146 0 min 0,000 mm 0,0 UV-I 0 W/m 9,8 C 10,9 C 1,6 km/h (1 Bft) 98,11 %
01.10.2016 03:24 10,8 C 94 % 1012,4 hPa 0,0 l/m 0,0 km/h (0 Bft) SO 146 0 min 0,000 mm 0,0 UV-I 0 W/m 9,9 C 10,8 C 0,0 km/h (0 Bft) 95,65 %
01.10.2016 03:26 10,8 C 94 % 1012,4 hPa 0,0 l/m 0,0 km/h (0 Bft) SO 146 0 min 0,000 mm 0,0 UV-I 0 W/m 9,9 C 10,8 C 0,0 km/h (0 Bft) 98,46 %
01.10.2016 03:28 10,9 C 94 % 1012,4 hPa 0,0 l/m 0,0 km/h (0 Bft) SO 146 0 min 0,000 mm 0,0 UV-I 0 W/m 10,0 C 10,9 C 0,0 km/h (0 Bft) 100,00 %
01.10.2016 03:30 10,9 C 94 % 1012,4 hPa 0,0 l/m 0,0 km/h (0 Bft) SO 146 0 min 0,000 mm 0,0 UV-I 0 W/m 10,0 C 10,9 C 0,0 km/h (0 Bft) 100,00 %
01.10.2016 03:32 10,9 C 94 % 1012,4 hPa 0,0 l/m 0,0 km/h (0 Bft) SO 146 0 min 0,000 mm 0,0 UV-I 0 W/m 10,0 C 10,9 C 0,0 km/h (0 Bft) 100,00 %
01.10.2016 03:34 10,8 C 94 % 1012,4 hPa 0,0 l/m 1,8 km/h (1 Bft) SO 146 0 min 0,000 mm 0,0 UV-I 0 W/m 9,9 C 10,8 C 3,2 km/h (1 Bft) 100,00 %
01.10.2016 03:36 10,8 C 93 % 1012,4 hPa 0,0 l/m 2,0 km/h (1 Bft) SO 146 0 min 0,000 mm 0,0 UV-I 0 W/m 9,7 C 10,8 C 3,2 km/h (1 Bft) 100,00 %
01.10.2016 03:38 10,7 C 94 % 1012,3 hPa 0,0 l/m 1,6 km/h (1 Bft) SO 146 0 min 0,000 mm 0,0 UV-I 0 W/m 9,8 C 10,7 C 3,2 km/h (1 Bft) 100,00 %
01.10.2016 03:40 10,7 C 94 % 1012,3 hPa 0,0 l/m 0,9 km/h (0 Bft) SO 146 0 min 0,000 mm 0,0 UV-I 0 W/m 9,8 C 10,7 C 1,6 km/h (1 Bft) 100,00 %
01.10.2016 03:42 10,7 C 94 % 1012,3 hPa 0,0 l/m 1,0 km/h (0 Bft) SO 146 0 min 0,000 mm 0,0 UV-I 0 W/m 9,8 C 10,7 C 1,6 km/h (1 Bft) 100,00 %
01.10.2016 03:44 10,7 C 94 % 1012,3 hPa 0,0 l/m 1,5 km/h (1 Bft) SO 146 0 min 0,000 mm 0,0 UV-I 0 W/m 9,8 C 10,7 C 3,2 km/h (1 Bft) 100,00 %
01.10.2016 03:46 10,8 C 95 % 1012,3 hPa 0,0 l/m 1,5 km/h (1 Bft) SO 146 0 min 0,000 mm 0,0 UV-I 0 W/m 10,0 C 10,8 C 3,2 km/h (1 Bft) 100,00 %
01.10.2016 03:48 10,8 C 95 % 1012,3 hPa 0,0 l/m 1,5 km/h (1 Bft) SO 146 0 min 0,000 mm 0,0 UV-I 0 W/m 10,0 C 10,8 C 3,2 km/h (1 Bft) 100,00 %
01.10.2016 03:50 10,9 C 95 % 1012,2 hPa 0,0 l/m 0,9 km/h (0 Bft) SO 146 0 min 0,000 mm 0,0 UV-I 0 W/m 10,1 C 10,9 C 1,6 km/h (1 Bft) 100,00 %
01.10.2016 03:52 10,9 C 95 % 1012,2 hPa 0,0 l/m 0,2 km/h (0 Bft) SO 146 0 min 0,000 mm 0,0 UV-I 0 W/m 10,1 C 10,9 C 1,6 km/h (1 Bft) 100,00 %
01.10.2016 03:54 10,9 C 94 % 1012,2 hPa 0,0 l/m 0,0 km/h (0 Bft) SO 146 0 min 0,000 mm 0,0 UV-I 0 W/m 10,0 C 10,9 C 0,0 km/h (0 Bft) 100,00 %
01.10.2016 03:56 10,8 C 94 % 1012,2 hPa 0,0 l/m 0,0 km/h (0 Bft) SO 146 0 min 0,000 mm 0,0 UV-I 0 W/m 9,9 C 10,8 C 0,0 km/h (0 Bft) 100,00 %
01.10.2016 03:58 10,8 C 94 % 1012,2 hPa 0,0 l/m 0,0 km/h (0 Bft) SO 146 0 min 0,000 mm 0,0 UV-I 0 W/m 9,9 C 10,8 C 0,0 km/h (0 Bft) 100,00 %
01.10.2016 04:00 10,8 C 94 % 1012,2 hPa 0,0 l/m 0,0 km/h (0 Bft) SO 146 0 min 0,000 mm 0,0 UV-I 0 W/m 9,9 C 10,8 C 0,0 km/h (0 Bft) 100,00 %
01.10.2016 04:02 10,8 C 94 % 1012,2 hPa 0,0 l/m 0,0 km/h (0 Bft) SO 146 0 min 0,000 mm 0,0 UV-I 0 W/m 9,9 C 10,8 C 0,0 km/h (0 Bft) 100,00 %
01.10.2016 04:04 10,8 C 94 % 1012,2 hPa 0,0 l/m 0,3 km/h (0 Bft) SO 146 0 min 0,000 mm 0,0 UV-I 0 W/m 9,9 C 10,8 C 1,6 km/h (1 Bft) 100,00 %
01.10.2016 04:06 10,7 C 94 % 1012,2 hPa 0,0 l/m 0,8 km/h (0 Bft) SO 146 0 min 0,000 mm 0,0 UV-I 0 W/m 9,8 C 10,7 C 1,6 km/h (1 Bft) 100,00 %
01.10.2016 04:08 10,6 C 94 % 1012,2 hPa 0,0 l/m 0,2 km/h (0 Bft) SO 146 0 min 0,000 mm 0,0 UV-I 0 W/m 9,7 C 10,6 C 1,6 km/h (1 Bft) 100,00 %
01.10.2016 04:10 10,6 C 94 % 1012,2 hPa 0,0 l/m 0,8 km/h (0 Bft) SO 146 0 min 0,000 mm 0,0 UV-I 0 W/m 9,7 C 10,6 C 1,6 km/h (1 Bft) 97,87 %
01.10.2016 04:12 10,6 C 94 % 1012,1 hPa 0,0 l/m 1,3 km/h (1 Bft) SO 146 0 min 0,000 mm 0,0 UV-I 0 W/m 9,7 C 10,6 C 3,2 km/h (1 Bft) 97,87 %
01.10.2016 04:14 10,6 C 94 % 1012,1 hPa 0,0 l/m 0,1 km/h (0 Bft) SO 146 0 min 0,000 mm 0,0 UV-I 0 W/m 9,7 C 10,6 C 1,6 km/h (1 Bft) 100,00 %
01.10.2016 04:16 10,5 C 94 % 1012,1 hPa 0,0 l/m 0,5 km/h (0 Bft) SO 146 0 min 0,000 mm 0,0 UV-I 0 W/m 9,6 C 10,5 C 1,6 km/h (1 Bft) 100,00 %
01.10.2016 04:18 10,6 C 94 % 1012,1 hPa 0,0 l/m 0,7 km/h (0 Bft) SO 146 0 min 0,000 mm 0,0 UV-I 0 W/m 9,7 C 10,6 C 1,6 km/h (1 Bft) 100,00 %
01.10.2016 04:20 10,7 C 95 % 1012,0 hPa 0,0 l/m 0,5 km/h (0 Bft) SO 146 0 min 0,000 mm 0,0 UV-I 0 W/m 9,9 C 10,7 C 1,6 km/h (1 Bft) 97,87 %
01.10.2016 04:22 10,6 C 94 % 1012,0 hPa 0,0 l/m 1,1 km/h (1 Bft) SO 146 0 min 0,000 mm 0,0 UV-I 0 W/m 9,7 C 10,6 C 1,6 km/h (1 Bft) 100,00 %
01.10.2016 04:24 10,6 C 94 % 1012,0 hPa 0,0 l/m 2,1 km/h (1 Bft) SO 146 0 min 0,000 mm 0,0 UV-I 0 W/m 9,7 C 10,6 C 3,2 km/h (1 Bft) 100,00 %
01.10.2016 04:26 10,6 C 95 % 1012,0 hPa 0,0 l/m 0,4 km/h (0 Bft) SO 146 0 min 0,000 mm 0,0 UV-I 0 W/m 9,8 C 10,6 C 1,6 km/h (1 Bft) 100,00 %
01.10.2016 04:28 10,7 C 95 % 1012,0 hPa 0,0 l/m 0,0 km/h (0 Bft) SO 146 0 min 0,000 mm 0,0 UV-I 0 W/m 9,9 C 10,7 C 0,0 km/h (0 Bft) 96,00 %
01.10.2016 04:30 10,7 C 95 % 1012,0 hPa 0,0 l/m 0,0 km/h (0 Bft) SO 146 0 min 0,000 mm 0,0 UV-I 0 W/m 9,9 C 10,7 C 0,0 km/h (0 Bft) 100,00 %
01.10.2016 04:32 10,6 C 95 % 1012,0 hPa 0,0 l/m 0,0 km/h (0 Bft) SO 146 0 min 0,000 mm 0,0 UV-I 0 W/m 9,8 C 10,6 C 0,0 km/h (0 Bft) 100,00 %
01.10.2016 04:34 10,4 C 94 % 1012,0 hPa 0,0 l/m 0,0 km/h (0 Bft) SO 146 0 min 0,000 mm 0,0 UV-I 0 W/m 9,5 C 10,4 C 0,0 km/h (0 Bft) 97,87 %
01.10.2016 04:36 10,4 C 95 % 1012,0 hPa 0,0 l/m 0,0 km/h (0 Bft) SO 146 0 min 0,000 mm 0,0 UV-I 0 W/m 9,6 C 10,4 C 0,0 km/h (0 Bft) 97,87 %
01.10.2016 04:38 10,3 C 94 % 1012,0 hPa 0,0 l/m 0,0 km/h (0 Bft) SO 146 0 min 0,000 mm 0,0 UV-I 0 W/m 9,4 C 10,3 C 1,6 km/h (1 Bft) 100,00 %
01.10.2016 04:40 10,2 C 94 % 1012,0 hPa 0,0 l/m 0,1 km/h (0 Bft) SO 146 0 min 0,000 mm 0,0 UV-I 0 W/m 9,3 C 10,2 C 1,6 km/h (1 Bft) 97,37 %
01.10.2016 04:42 10,1 C 94 % 1011,9 hPa 0,0 l/m 0,0 km/h (0 Bft) SO 146 0 min 0,000 mm 0,0 UV-I 0 W/m 9,2 C 10,1 C 0,0 km/h (0 Bft) 100,00 %
01.10.2016 04:44 9,9 C 94 % 1011,9 hPa 0,0 l/m 0,0 km/h (0 Bft) SO 146 0 min 0,000 mm 0,0 UV-I 0 W/m 9,0 C 9,9 C 0,0 km/h (0 Bft) 100,00 %
01.10.2016 04:46 9,9 C 94 % 1011,9 hPa 0,0 l/m 0,1 km/h (0 Bft) SO 146 0 min 0,000 mm 0,0 UV-I 0 W/m 9,0 C 9,9 C 1,6 km/h (1 Bft) 100,00 %
01.10.2016 04:48 9,8 C 94 % 1011,9 hPa 0,0 l/m 0,1 km/h (0 Bft) SO 146 0 min 0,000 mm 0,0 UV-I 0 W/m 8,9 C 9,8 C 1,6 km/h (1 Bft) 100,00 %
01.10.2016 04:50 9,8 C 95 % 1011,9 hPa 0,0 l/m 1,0 km/h (0 Bft) SO 146 0 min 0,000 mm 0,0 UV-I 0 W/m 9,0 C 9,8 C 1,6 km/h (1 Bft) 100,00 %
01.10.2016 04:52 9,8 C 95 % 1011,9 hPa 0,0 l/m 0,4 km/h (0 Bft) SO 146 0 min 0,000 mm 0,0 UV-I 0 W/m 9,0 C 9,8 C 1,6 km/h (1 Bft) 100,00 %
01.10.2016 04:54 9,8 C 95 % 1011,8 hPa 0,0 l/m 0,0 km/h (0 Bft) SO 146 0 min 0,000 mm 0,0 UV-I 0 W/m 9,0 C 9,8 C 0,0 km/h (0 Bft) 100,00 %
01.10.2016 04:56 10,0 C 96 % 1011,8 hPa 0,0 l/m 0,0 km/h (0 Bft) SO 146 0 min 0,000 mm 0,0 UV-I 0 W/m 9,4 C 10,0 C 0,0 km/h (0 Bft) 100,00 %
01.10.2016 04:58 10,1 C 95 % 1011,8 hPa 0,0 l/m 0,0 km/h (0 Bft) SO 146 0 min 0,000 mm 0,0 UV-I 0 W/m 9,3 C 10,1 C 0,0 km/h (0 Bft) 97,22 %
01.10.2016 05:00 10,3 C 96 % 1011,8 hPa 0,0 l/m 0,0 km/h (0 Bft) SO 146 0 min 0,000 mm 0,0 UV-I 0 W/m 9,7 C 10,3 C 0,0 km/h (0 Bft) 96,00 %
01.10.2016 05:02 10,3 C 95 % 1011,8 hPa 0,0 l/m 0,1 km/h (0 Bft) SO 146 0 min 0,000 mm 0,0 UV-I 0 W/m 9,5 C 10,3 C 1,6 km/h (1 Bft) 98,00 %
01.10.2016 05:04 10,2 C 95 % 1011,8 hPa 0,0 l/m 0,0 km/h (0 Bft) SO 146 0 min 0,000 mm 0,0 UV-I 0 W/m 9,4 C 10,2 C 1,6 km/h (1 Bft) 97,87 %
01.10.2016 05:06 10,1 C 95 % 1011,8 hPa 0,0 l/m 0,0 km/h (0 Bft) SO 146 0 min 0,000 mm 0,0 UV-I 0 W/m 9,3 C 10,1 C 0,0 km/h (0 Bft) 97,56 %
01.10.2016 05:08 10,0 C 95 % 1011,8 hPa 0,0 l/m 0,8 km/h (0 Bft) SO 146 0 min 0,000 mm 0,0 UV-I 0 W/m 9,2 C 10,0 C 3,2 km/h (1 Bft) 98,00 %
01.10.2016 05:10 9,8 C 95 % 1011,8 hPa 0,0 l/m 0,5 km/h (0 Bft) SO 146 0 min 0,000 mm 0,0 UV-I 0 W/m 9,0 C 9,8 C 1,6 km/h (1 Bft) 97,87 %
01.10.2016 05:12 9,8 C 95 % 1011,8 hPa 0,0 l/m 1,2 km/h (1 Bft) SO 146 0 min 0,000 mm 0,0 UV-I 0 W/m 9,0 C 9,8 C 3,2 km/h (1 Bft) 93,62 %
01.10.2016 05:14 9,7 C 95 % 1011,8 hPa 0,0 l/m 1,8 km/h (1 Bft) SO 146 0 min 0,000 mm 0,0 UV-I 0 W/m 8,9 C 9,7 C 3,2 km/h (1 Bft) 97,73 %
01.10.2016 05:16 9,7 C 95 % 1011,8 hPa 0,0 l/m 1,5 km/h (1 Bft) SO 146 0 min 0,000 mm 0,0 UV-I 0 W/m 8,9 C 9,7 C 3,2 km/h (1 Bft) 97,87 %
01.10.2016 05:18 9,7 C 95 % 1011,8 hPa 0,0 l/m 1,3 km/h (1 Bft) SO 146 0 min 0,000 mm 0,0 UV-I 0 W/m 8,9 C 9,7 C 1,6 km/h (1 Bft) 95,74 %
01.10.2016 05:20 9,8 C 96 % 1011,8 hPa 0,0 l/m 1,3 km/h (1 Bft) SO 146 0 min 0,000 mm 0,0 UV-I 0 W/m 9,2 C 9,8 C 3,2 km/h (1 Bft) 96,00 %
01.10.2016 05:22 9,8 C 96 % 1011,8 hPa 0,0 l/m 0,0 km/h (0 Bft) SO 146 0 min 0,000 mm 0,0 UV-I 0 W/m 9,2 C 9,8 C 1,6 km/h (1 Bft) 97,87 %
01.10.2016 05:24 9,9 C 96 % 1011,7 hPa 0,0 l/m 0,0 km/h (0 Bft) SO 146 0 min 0,000 mm 0,0 UV-I 0 W/m 9,3 C 9,9 C 0,0 km/h (0 Bft) 97,87 %
01.10.2016 05:26 9,9 C 96 % 1011,8 hPa 0,0 l/m 0,0 km/h (0 Bft) SO 146 0 min 0,000 mm 0,0 UV-I 0 W/m 9,3 C 9,9 C 0,0 km/h (0 Bft) 97,92 %
01.10.2016 05:28 9,8 C 95 % 1011,6 hPa 0,0 l/m 0,0 km/h (0 Bft) SO 146 0 min 0,000 mm 0,0 UV-I 0 W/m 9,0 C 9,8 C 0,0 km/h (0 Bft) 95,74 %
01.10.2016 05:30 9,7 C 95 % 1011,6 hPa 0,0 l/m 0,0 km/h (0 Bft) SO 146 0 min 0,000 mm 0,0 UV-I 0 W/m 8,9 C 9,7 C 0,0 km/h (0 Bft) 95,74 %
01.10.2016 05:32 9,7 C 95 % 1011,6 hPa 0,0 l/m 0,0 km/h (0 Bft) SO 146 0 min 0,000 mm 0,0 UV-I 0 W/m 8,9 C 9,7 C 0,0 km/h (0 Bft) 98,00 %
01.10.2016 05:34 9,8 C 96 % 1011,7 hPa 0,0 l/m 0,0 km/h (0 Bft) SO 146 0 min 0,000 mm 0,0 UV-I 0 W/m 9,2 C 9,8 C 0,0 km/h (0 Bft) 100,00 %
01.10.2016 05:36 9,9 C 96 % 1011,7 hPa 0,0 l/m 0,0 km/h (0 Bft) SO 146 0 min 0,000 mm 0,0 UV-I 0 W/m 9,3 C 9,9 C 1,6 km/h (1 Bft) 100,00 %
01.10.2016 05:38 9,9 C 96 % 1011,7 hPa 0,0 l/m 0,0 km/h (0 Bft) SO 146 0 min 0,000 mm 0,0 UV-I 0 W/m 9,3 C 9,9 C 0,0 km/h (0 Bft) 97,87 %
01.10.2016 05:40 9,9 C 96 % 1011,6 hPa 0,0 l/m 0,0 km/h (0 Bft) SO 146 0 min 0,000 mm 0,0 UV-I 0 W/m 9,3 C 9,9 C 0,0 km/h (0 Bft) 100,00 %
01.10.2016 05:42 9,9 C 96 % 1011,6 hPa 0,0 l/m 0,0 km/h (0 Bft) SO 146 0 min 0,000 mm 0,0 UV-I 0 W/m 9,3 C 9,9 C 0,0 km/h (0 Bft) 97,87 %
01.10.2016 05:44 9,9 C 96 % 1011,6 hPa 0,0 l/m 0,0 km/h (0 Bft) SO 146 0 min 0,000 mm 0,0 UV-I 0 W/m 9,3 C 9,9 C 0,0 km/h (0 Bft) 100,00 %
01.10.2016 05:46 9,9 C 96 % 1011,6 hPa 0,0 l/m 0,0 km/h (0 Bft) SO 146 0 min 0,000 mm 0,0 UV-I 0 W/m 9,3 C 9,9 C 0,0 km/h (0 Bft) 100,00 %
01.10.2016 05:48 9,8 C 95 % 1011,7 hPa 0,0 l/m 0,0 km/h (0 Bft) SO 146 0 min 0,000 mm 0,0 UV-I 0 W/m 9,0 C 9,8 C 0,0 km/h (0 Bft) 97,37 %
01.10.2016 05:50 9,8 C 95 % 1011,6 hPa 0,0 l/m 0,0 km/h (0 Bft) SO 146 0 min 0,000 mm 0,0 UV-I 0 W/m 9,0 C 9,8 C 0,0 km/h (0 Bft) 100,00 %
01.10.2016 05:52 9,8 C 95 % 1011,6 hPa 0,0 l/m 0,0 km/h (0 Bft) SO 146 0 min 0,000 mm 0,0 UV-I 0 W/m 9,0 C 9,8 C 0,0 km/h (0 Bft) 100,00 %
01.10.2016 05:54 9,7 C 95 % 1011,6 hPa 0,0 l/m 0,0 km/h (0 Bft) SO 146 0 min 0,000 mm 0,0 UV-I 0 W/m 8,9 C 9,7 C 0,0 km/h (0 Bft) 100,00 %
01.10.2016 05:56 9,7 C 95 % 1011,6 hPa 0,0 l/m 0,0 km/h (0 Bft) SO 146 0 min 0,000 mm 0,0 UV-I 0 W/m 8,9 C 9,7 C 0,0 km/h (0 Bft) 100,00 %
01.10.2016 05:58 9,6 C 95 % 1011,6 hPa 0,0 l/m 0,0 km/h (0 Bft) SO 146 0 min 0,000 mm 0,0 UV-I 0 W/m 8,8 C 9,6 C 0,0 km/h (0 Bft) 100,00 %
01.10.2016 06:00 9,7 C 95 % 1011,6 hPa 0,0 l/m 0,0 km/h (0 Bft) SO 146 0 min 0,000 mm 0,0 UV-I 0 W/m 8,9 C 9,7 C 0,0 km/h (0 Bft) 98,00 %
01.10.2016 06:02 9,7 C 96 % 1011,6 hPa 0,0 l/m 0,0 km/h (0 Bft) SO 146 0 min 0,000 mm 0,0 UV-I 0 W/m 9,1 C 9,7 C 0,0 km/h (0 Bft) 100,00 %
01.10.2016 06:04 9,8 C 95 % 1011,6 hPa 0,0 l/m 0,0 km/h (0 Bft) SO 146 0 min 0,000 mm 0,0 UV-I 0 W/m 9,0 C 9,8 C 0,0 km/h (0 Bft) 100,00 %
01.10.2016 06:06 9,8 C 96 % 1011,6 hPa 0,0 l/m 0,0 km/h (0 Bft) SO 146 0 min 0,000 mm 0,0 UV-I 0 W/m 9,2 C 9,8 C 0,0 km/h (0 Bft) 100,00 %
01.10.2016 06:08 9,9 C 96 % 1011,6 hPa 0,0 l/m 0,0 km/h (0 Bft) SO 146 0 min 0,000 mm 0,0 UV-I 0 W/m 9,3 C 9,9 C 0,0 km/h (0 Bft) 98,00 %
01.10.2016 06:10 9,9 C 96 % 1011,6 hPa 0,0 l/m 0,0 km/h (0 Bft) SO 146 0 min 0,000 mm 0,0 UV-I 0 W/m 9,3 C 9,9 C 0,0 km/h (0 Bft) 97,87 %
01.10.2016 06:12 9,9 C 96 % 1011,5 hPa 0,0 l/m 0,0 km/h (0 Bft) SO 146 0 min 0,000 mm 0,0 UV-I 0 W/m 9,3 C 9,9 C 0,0 km/h (0 Bft) 98,00 %
01.10.2016 06:14 9,8 C 95 % 1011,5 hPa 0,0 l/m 0,0 km/h (0 Bft) SO 146 0 min 0,000 mm 0,0 UV-I 0 W/m 9,0 C 9,8 C 0,0 km/h (0 Bft) 100,00 %
01.10.2016 06:16 9,8 C 95 % 1011,5 hPa 0,0 l/m 0,0 km/h (0 Bft) SO 146 0 min 0,000 mm 0,0 UV-I 0 W/m 9,0 C 9,8 C 0,0 km/h (0 Bft) 100,00 %
01.10.2016 06:18 9,8 C 96 % 1011,5 hPa 0,0 l/m 1,5 km/h (1 Bft) SO 146 0 min 0,000 mm 0,0 UV-I 0 W/m 9,2 C 9,8 C 3,2 km/h (1 Bft) 98,00 %
01.10.2016 06:20 9,7 C 96 % 1011,5 hPa 0,0 l/m 0,5 km/h (0 Bft) SO 146 0 min 0,000 mm 0,0 UV-I 0 W/m 9,1 C 9,7 C 1,6 km/h (1 Bft) 97,87 %
01.10.2016 06:22 9,7 C 96 % 1011,5 hPa 0,0 l/m 0,0 km/h (0 Bft) SO 146 0 min 0,000 mm 0,0 UV-I 0 W/m 9,1 C 9,7 C 0,0 km/h (0 Bft) 100,00 %
01.10.2016 06:24 9,7 C 96 % 1011,5 hPa 0,0 l/m 0,0 km/h (0 Bft) SO 146 0 min 0,000 mm 0,0 UV-I 0 W/m 9,1 C 9,7 C 0,0 km/h (0 Bft) 93,62 %
01.10.2016 06:26 9,8 C 96 % 1011,5 hPa 0,0 l/m 0,0 km/h (0 Bft) SO 146 0 min 0,000 mm 0,0 UV-I 0 W/m 9,2 C 9,8 C 0,0 km/h (0 Bft) 100,00 %
01.10.2016 06:28 9,8 C 96 % 1011,5 hPa 0,0 l/m 0,0 km/h (0 Bft) SO 146 0 min 0,000 mm 0,0 UV-I 0 W/m 9,2 C 9,8 C 0,0 km/h (0 Bft) 100,00 %
01.10.2016 06:30 9,7 C 96 % 1011,5 hPa 0,0 l/m 0,0 km/h (0 Bft) SO 146 0 min 0,000 mm 0,0 UV-I 0 W/m 9,1 C 9,7 C 0,0 km/h (0 Bft) 100,00 %
01.10.2016 06:32 9,6 C 95 % 1011,5 hPa 0,0 l/m 0,0 km/h (0 Bft) SO 146 0 min 0,000 mm 0,0 UV-I 0 W/m 8,8 C 9,6 C 0,0 km/h (0 Bft) 100,00 %
01.10.2016 06:34 9,6 C 96 % 1011,5 hPa 0,0 l/m 0,0 km/h (0 Bft) SO 146 0 min 0,000 mm 0,0 UV-I 0 W/m 9,0 C 9,6 C 0,0 km/h (0 Bft) 97,56 %
01.10.2016 06:36 9,6 C 96 % 1011,5 hPa 0,0 l/m 0,0 km/h (0 Bft) SO 146 0 min 0,000 mm 0,0 UV-I 0 W/m 9,0 C 9,6 C 0,0 km/h (0 Bft) 100,00 %
01.10.2016 06:38 9,7 C 96 % 1011,5 hPa 0,0 l/m 0,1 km/h (0 Bft) SO 146 0 min 0,000 mm 0,0 UV-I 0 W/m 9,1 C 9,7 C 1,6 km/h (1 Bft) 100,00 %
01.10.2016 06:40 9,6 C 96 % 1011,5 hPa 0,0 l/m 0,0 km/h (0 Bft) SO 146 0 min 0,000 mm 0,0 UV-I 0 W/m 9,0 C 9,6 C 0,0 km/h (0 Bft) 100,00 %
01.10.2016 06:42 9,4 C 95 % 1011,5 hPa 0,0 l/m 0,0 km/h (0 Bft) SO 146 0 min 0,000 mm 0,0 UV-I 0 W/m 8,6 C 9,4 C 0,0 km/h (0 Bft) 100,00 %
01.10.2016 06:44 9,2 C 95 % 1011,5 hPa 0,0 l/m 0,1 km/h (0 Bft) SO 146 0 min 0,000 mm 0,0 UV-I 0 W/m 8,4 C 9,2 C 1,6 km/h (1 Bft) 97,87 %
01.10.2016 06:46 9,1 C 95 % 1011,5 hPa 0,0 l/m 1,3 km/h (1 Bft) SO 146 0 min 0,000 mm 0,0 UV-I 0 W/m 8,3 C 9,1 C 3,2 km/h (1 Bft) 100,00 %
01.10.2016 06:48 9,1 C 96 % 1011,5 hPa 0,0 l/m 3,0 km/h (1 Bft) SO 144 0 min 0,000 mm 0,0 UV-I 0 W/m 8,5 C 9,1 C 4,8 km/h (1 Bft) 100,00 %
01.10.2016 06:50 9,4 C 96 % 1011,4 hPa 0,0 l/m 3,4 km/h (1 Bft) SO 142 0 min 0,000 mm 0,0 UV-I 0 W/m 8,8 C 9,4 C 4,8 km/h (1 Bft) 98,39 %
01.10.2016 06:52 9,7 C 97 % 1011,5 hPa 0,0 l/m 2,9 km/h (1 Bft) SO 142 0 min 0,000 mm 0,0 UV-I 0 W/m 9,2 C 9,7 C 3,2 km/h (1 Bft) 100,00 %
01.10.2016 06:54 9,8 C 97 % 1011,5 hPa 0,0 l/m 2,2 km/h (1 Bft) SO 142 0 min 0,000 mm 0,0 UV-I 0 W/m 9,3 C 9,8 C 3,2 km/h (1 Bft) 100,00 %
01.10.2016 06:56 9,8 C 97 % 1011,5 hPa 0,0 l/m 1,7 km/h (1 Bft) SO 142 0 min 0,000 mm 0,0 UV-I 0 W/m 9,3 C 9,8 C 3,2 km/h (1 Bft) 100,00 %
01.10.2016 06:58 9,8 C 96 % 1011,5 hPa 0,0 l/m 0,8 km/h (0 Bft) SO 142 0 min 0,000 mm 0,0 UV-I 0 W/m 9,2 C 9,8 C 1,6 km/h (1 Bft) 97,92 %
01.10.2016 07:00 9,6 C 96 % 1011,6 hPa 0,0 l/m 0,0 km/h (0 Bft) SO 142 0 min 0,000 mm 0,0 UV-I 0 W/m 9,0 C 9,6 C 0,0 km/h (0 Bft) 95,12 %
01.10.2016 07:02 9,6 C 96 % 1011,5 hPa 0,0 l/m 0,0 km/h (0 Bft) SO 142 0 min 0,000 mm 0,0 UV-I 0 W/m 9,0 C 9,6 C 0,0 km/h (0 Bft) 98,11 %
01.10.2016 07:04 9,5 C 96 % 1011,5 hPa 0,0 l/m 0,0 km/h (0 Bft) SO 142 0 min 0,000 mm 0,0 UV-I 2 W/m 8,9 C 9,5 C 0,0 km/h (0 Bft) 100,00 %
01.10.2016 07:06 9,4 C 96 % 1011,5 hPa 0,0 l/m 0,0 km/h (0 Bft) SO 142 0 min 0,000 mm 0,0 UV-I 5 W/m 8,8 C 9,4 C 0,0 km/h (0 Bft) 98,00 %
01.10.2016 07:08 9,3 C 96 % 1011,5 hPa 0,0 l/m 0,0 km/h (0 Bft) SO 142 0 min 0,000 mm 0,0 UV-I 6 W/m 8,7 C 9,3 C 0,0 km/h (0 Bft) 97,87 %
01.10.2016 07:10 9,3 C 96 % 1011,6 hPa 0,0 l/m 0,0 km/h (0 Bft) SO 142 0 min 0,000 mm 0,0 UV-I 8 W/m 8,7 C 9,3 C 0,0 km/h (0 Bft) 93,62 %
01.10.2016 07:12 9,2 C 96 % 1011,5 hPa 0,0 l/m 0,0 km/h (0 Bft) SO 142 0 min 0,000 mm 0,0 UV-I 10 W/m 8,6 C 9,2 C 0,0 km/h (0 Bft) 97,56 %
01.10.2016 07:14 9,1 C 96 % 1011,5 hPa 0,0 l/m 0,0 km/h (0 Bft) SO 142 2 min 0,000 mm 0,0 UV-I 12 W/m 8,5 C 9,1 C 0,0 km/h (0 Bft) 95,74 %
01.10.2016 07:16 9,1 C 96 % 1011,5 hPa 0,0 l/m 0,0 km/h (0 Bft) SO 142 2 min 0,000 mm 0,0 UV-I 15 W/m 8,5 C 9,1 C 0,0 km/h (0 Bft) 96,00 %
01.10.2016 07:18 9,2 C 96 % 1011,5 hPa 0,0 l/m 0,0 km/h (0 Bft) SO 142 2 min 0,000 mm 0,0 UV-I 17 W/m 8,6 C 9,2 C 0,0 km/h (0 Bft) 97,56 %
01.10.2016 07:20 9,2 C 96 % 1011,5 hPa 0,0 l/m 0,0 km/h (0 Bft) SO 142 2 min 0,000 mm 0,0 UV-I 19 W/m 8,6 C 9,2 C 0,0 km/h (0 Bft) 97,87 %
01.10.2016 07:22 9,2 C 96 % 1011,5 hPa 0,0 l/m 0,0 km/h (0 Bft) SO 142 0 min 0,000 mm 0,0 UV-I 21 W/m 8,6 C 9,2 C 0,0 km/h (0 Bft) 95,74 %
01.10.2016 07:24 9,2 C 96 % 1011,6 hPa 0,0 l/m 0,0 km/h (0 Bft) SO 142 0 min 0,000 mm 0,0 UV-I 24 W/m 8,6 C 9,2 C 0,0 km/h (0 Bft) 98,00 %
01.10.2016 07:26 9,3 C 96 % 1011,5 hPa 0,0 l/m 0,0 km/h (0 Bft) SO 142 0 min 0,000 mm 0,0 UV-I 25 W/m 8,7 C 9,3 C 0,0 km/h (0 Bft) 97,87 %
01.10.2016 07:28 9,3 C 96 % 1011,5 hPa 0,0 l/m 0,0 km/h (0 Bft) SO 142 0 min 0,000 mm 0,0 UV-I 29 W/m 8,7 C 9,3 C 0,0 km/h (0 Bft) 94,00 %
01.10.2016 07:30 9,3 C 96 % 1011,5 hPa 0,0 l/m 0,0 km/h (0 Bft) SO 142 0 min 0,000 mm 0,0 UV-I 33 W/m 8,7 C 9,3 C 0,0 km/h (0 Bft) 97,56 %
01.10.2016 07:32 9,4 C 96 % 1011,5 hPa 0,0 l/m 0,0 km/h (0 Bft) SO 142 0 min 0,000 mm 0,0 UV-I 34 W/m 8,8 C 9,4 C 0,0 km/h (0 Bft) 98,00 %
01.10.2016 07:34 9,4 C 96 % 1011,6 hPa 0,0 l/m 0,0 km/h (0 Bft) SO 142 0 min 0,000 mm 0,0 UV-I 39 W/m 8,8 C 9,4 C 0,0 km/h (0 Bft) 97,87 %
01.10.2016 07:36 9,4 C 96 % 1011,6 hPa 0,0 l/m 0,0 km/h (0 Bft) SO 142 0 min 0,000 mm 0,0 UV-I 40 W/m 8,8 C 9,4 C 0,0 km/h (0 Bft) 95,24 %
01.10.2016 07:38 9,3 C 96 % 1011,5 hPa 0,0 l/m 0,0 km/h (0 Bft) SO 142 0 min 0,000 mm 0,0 UV-I 40 W/m 8,7 C 9,3 C 0,0 km/h (0 Bft) 97,87 %
01.10.2016 07:40 9,3 C 96 % 1011,5 hPa 0,0 l/m 0,0 km/h (0 Bft) SO 142 0 min 0,000 mm 0,0 UV-I 37 W/m 8,7 C 9,3 C 1,6 km/h (1 Bft) 95,74 %
01.10.2016 07:42 9,2 C 96 % 1011,6 hPa 0,0 l/m 0,8 km/h (0 Bft) SO 142 0 min 0,000 mm 0,0 UV-I 38 W/m 8,6 C 9,2 C 3,2 km/h (1 Bft) 98,00 %
01.10.2016 07:44 9,3 C 96 % 1011,6 hPa 0,0 l/m 2,2 km/h (1 Bft) SO 142 0 min 0,000 mm 0,0 UV-I 45 W/m 8,7 C 9,3 C 3,2 km/h (1 Bft) 100,00 %
01.10.2016 07:46 9,4 C 97 % 1011,5 hPa 0,0 l/m 2,6 km/h (1 Bft) SO 142 0 min 0,000 mm 0,0 UV-I 43 W/m 8,9 C 9,4 C 3,2 km/h (1 Bft) 100,00 %
01.10.2016 07:48 9,6 C 97 % 1011,5 hPa 0,0 l/m 3,1 km/h (1 Bft) SO 141 0 min 0,000 mm 0,0 UV-I 43 W/m 9,1 C 9,6 C 4,8 km/h (1 Bft) 100,00 %
01.10.2016 07:50 9,8 C 97 % 1011,5 hPa 0,0 l/m 2,8 km/h (1 Bft) SO 141 0 min 0,000 mm 0,0 UV-I 45 W/m 9,3 C 9,8 C 3,2 km/h (1 Bft) 100,00 %
01.10.2016 07:52 9,8 C 97 % 1011,6 hPa 0,0 l/m 3,0 km/h (1 Bft) SO 138 0 min 0,000 mm 0,0 UV-I 49 W/m 9,3 C 9,8 C 4,8 km/h (1 Bft) 100,00 %
01.10.2016 07:54 9,9 C 97 % 1011,6 hPa 0,0 l/m 3,3 km/h (1 Bft) O-SO 104 0 min 0,000 mm 0,0 UV-I 51 W/m 9,4 C 9,9 C 6,4 km/h (2 Bft) 100,00 %
01.10.2016 07:56 10,1 C 97 % 1011,6 hPa 0,0 l/m 2,5 km/h (1 Bft) O-SO 104 0 min 0,000 mm 0,0 UV-I 51 W/m 9,6 C 10,1 C 3,2 km/h (1 Bft) 97,37 %
01.10.2016 07:58 10,2 C 97 % 1011,6 hPa 0,0 l/m 2,8 km/h (1 Bft) O-SO 104 0 min 0,000 mm 0,0 UV-I 57 W/m 9,7 C 10,2 C 4,8 km/h (1 Bft) 100,00 %
01.10.2016 08:00 10,2 C 97 % 1011,5 hPa 0,0 l/m 2,5 km/h (1 Bft) O-SO 104 0 min 0,025 mm 0,0 UV-I 60 W/m 9,7 C 10,2 C 3,2 km/h (1 Bft) 97,14 %
01.10.2016 08:02 10,2 C 97 % 1011,5 hPa 0,0 l/m 2,3 km/h (1 Bft) O-SO 104 0 min 0,000 mm 0,0 UV-I 59 W/m 9,7 C 10,2 C 3,2 km/h (1 Bft) 100,00 %
01.10.2016 08:04 10,3 C 97 % 1011,5 hPa 0,0 l/m 0,8 km/h (0 Bft) O-SO 104 0 min 0,000 mm 0,0 UV-I 79 W/m 9,8 C 10,3 C 3,2 km/h (1 Bft) 100,00 %
01.10.2016 08:06 10,4 C 97 % 1011,5 hPa 0,0 l/m 1,0 km/h (0 Bft) O-SO 104 2 min 0,000 mm 0,0 UV-I 99 W/m 9,9 C 10,4 C 3,2 km/h (1 Bft) 100,00 %
01.10.2016 08:08 10,4 C 97 % 1011,5 hPa 0,0 l/m 0,7 km/h (0 Bft) O-SO 104 0 min 0,000 mm 0,0 UV-I 90 W/m 9,9 C 10,4 C 3,2 km/h (1 Bft) 100,00 %
01.10.2016 08:10 10,5 C 97 % 1011,5 hPa 0,0 l/m 1,8 km/h (1 Bft) O-SO 104 0 min 0,000 mm 0,0 UV-I 94 W/m 10,0 C 10,5 C 3,2 km/h (1 Bft) 97,87 %
01.10.2016 08:12 10,4 C 97 % 1011,5 hPa 0,0 l/m 0,8 km/h (0 Bft) O-SO 104 2 min 0,000 mm 0,0 UV-I 109 W/m 9,9 C 10,4 C 1,6 km/h (1 Bft) 98,11 %
01.10.2016 08:14 10,4 C 97 % 1011,5 hPa 0,0 l/m 0,6 km/h (0 Bft) O-SO 104 2 min 0,000 mm 0,0 UV-I 108 W/m 9,9 C 10,4 C 1,6 km/h (1 Bft) 100,00 %
01.10.2016 08:16 10,3 C 97 % 1011,5 hPa 0,0 l/m 1,1 km/h (1 Bft) O-SO 104 2 min 0,000 mm 0,0 UV-I 107 W/m 9,8 C 10,3 C 1,6 km/h (1 Bft) 100,00 %
01.10.2016 08:18 10,6 C 97 % 1011,5 hPa 0,0 l/m 2,1 km/h (1 Bft) O 79 2 min 0,000 mm 0,0 UV-I 137 W/m 10,1 C 10,6 C 4,8 km/h (1 Bft) 94,44 %
01.10.2016 08:20 10,8 C 97 % 1011,5 hPa 0,0 l/m 2,6 km/h (1 Bft) O-NO 63 2 min 0,000 mm 0,0 UV-I 125 W/m 10,3 C 10,8 C 4,8 km/h (1 Bft) 100,00 %
01.10.2016 08:22 10,9 C 97 % 1011,5 hPa 0,0 l/m 3,3 km/h (1 Bft) O-NO 63 2 min 0,000 mm 0,0 UV-I 139 W/m 10,4 C 10,9 C 4,8 km/h (1 Bft) 100,00 %
01.10.2016 08:24 11,2 C 97 % 1011,5 hPa 0,0 l/m 3,1 km/h (1 Bft) O 93 2 min 0,000 mm 0,0 UV-I 136 W/m 10,7 C 11,2 C 6,4 km/h (2 Bft) 100,00 %
01.10.2016 08:26 11,4 C 97 % 1011,5 hPa 0,0 l/m 3,9 km/h (1 Bft) O-NO 75 0 min 0,000 mm 0,0 UV-I 113 W/m 10,9 C 11,4 C 6,4 km/h (2 Bft) 100,00 %
01.10.2016 08:28 11,4 C 97 % 1011,5 hPa 0,0 l/m 2,5 km/h (1 Bft) O-NO 75 2 min 0,000 mm 0,0 UV-I 124 W/m 10,9 C 11,4 C 4,8 km/h (1 Bft) 100,00 %
01.10.2016 08:30 11,2 C 95 % 1011,5 hPa 0,0 l/m 1,3 km/h (1 Bft) O-NO 75 2 min 0,000 mm 0,0 UV-I 149 W/m 10,4 C 11,2 C 3,2 km/h (1 Bft) 98,11 %
01.10.2016 08:32 10,9 C 95 % 1011,5 hPa 0,0 l/m 0,9 km/h (0 Bft) O-NO 75 2 min 0,000 mm 0,0 UV-I 163 W/m 10,1 C 10,9 C 3,2 km/h (1 Bft) 100,00 %
01.10.2016 08:34 10,8 C 95 % 1011,6 hPa 0,0 l/m 0,0 km/h (0 Bft) O-NO 75 2 min 0,000 mm 0,0 UV-I 147 W/m 10,0 C 10,8 C 0,0 km/h (0 Bft) 100,00 %
01.10.2016 08:36 10,8 C 96 % 1011,5 hPa 0,0 l/m 0,0 km/h (0 Bft) O-NO 75 2 min 0,000 mm 0,0 UV-I 144 W/m 10,2 C 10,8 C 0,0 km/h (0 Bft) 97,87 %
01.10.2016 08:38 10,9 C 96 % 1011,5 hPa 0,0 l/m 0,0 km/h (0 Bft) O-NO 75 2 min 0,000 mm 0,0 UV-I 172 W/m 10,3 C 10,9 C 0,0 km/h (0 Bft) 100,00 %
01.10.2016 08:40 11,1 C 96 % 1011,5 hPa 0,0 l/m 1,4 km/h (1 Bft) O-NO 75 2 min 0,000 mm 0,0 UV-I 213 W/m 10,5 C 11,1 C 3,2 km/h (1 Bft) 100,00 %
01.10.2016 08:42 11,2 C 96 % 1011,6 hPa 0,0 l/m 2,4 km/h (1 Bft) O 94 2 min 0,000 mm 0,0 UV-I 216 W/m 10,6 C 11,2 C 3,2 km/h (1 Bft) 100,00 %
01.10.2016 08:44 11,4 C 96 % 1011,6 hPa 0,0 l/m 2,4 km/h (1 Bft) O-SO 116 2 min 0,000 mm 0,0 UV-I 194 W/m 10,8 C 11,4 C 3,2 km/h (1 Bft) 100,00 %
01.10.2016 08:46 11,5 C 96 % 1011,6 hPa 0,0 l/m 3,0 km/h (1 Bft) S 191 2 min 0,000 mm 0,0 UV-I 181 W/m 10,9 C 11,5 C 6,4 km/h (2 Bft) 100,00 %
01.10.2016 08:48 11,6 C 96 % 1011,6 hPa 0,0 l/m 2,6 km/h (1 Bft) S 191 2 min 0,000 mm 0,0 UV-I 189 W/m 11,0 C 11,6 C 4,8 km/h (1 Bft) 97,87 %
01.10.2016 08:50 11,7 C 96 % 1011,6 hPa 0,0 l/m 2,5 km/h (1 Bft) S 191 2 min 0,000 mm 0,0 UV-I 196 W/m 11,1 C 11,7 C 4,8 km/h (1 Bft) 100,00 %
01.10.2016 08:52 11,8 C 95 % 1011,6 hPa 0,0 l/m 2,8 km/h (1 Bft) S-SW 192 2 min 0,000 mm 0,0 UV-I 200 W/m 11,0 C 11,8 C 4,8 km/h (1 Bft) 100,00 %
01.10.2016 08:54 11,8 C 95 % 1011,5 hPa 0,0 l/m 3,7 km/h (1 Bft) S-SW 194 2 min 0,000 mm 0,0 UV-I 202 W/m 11,0 C 11,8 C 4,8 km/h (1 Bft) 100,00 %
01.10.2016 08:56 11,9 C 95 % 1011,6 hPa 0,0 l/m 3,2 km/h (1 Bft) S-SW 196 2 min 0,000 mm 0,4 UV-I 200 W/m 11,1 C 11,9 C 4,8 km/h (1 Bft) 97,87 %
01.10.2016 08:58 12,0 C 95 % 1011,6 hPa 0,0 l/m 3,6 km/h (1 Bft) S-SW 196 2 min 0,000 mm 0,5 UV-I 207 W/m 11,2 C 12,0 C 4,8 km/h (1 Bft) 100,00 %
01.10.2016 09:00 12,1 C 95 % 1011,6 hPa 0,0 l/m 3,8 km/h (1 Bft) S-SW 205 2 min 0,077 mm 0,5 UV-I 239 W/m 11,3 C 12,1 C 6,4 km/h (2 Bft) 100,00 %
01.10.2016 09:02 12,2 C 95 % 1011,6 hPa 0,0 l/m 2,4 km/h (1 Bft) S-SW 205 2 min 0,000 mm 0,5 UV-I 239 W/m 11,4 C 12,2 C 4,8 km/h (1 Bft) 98,00 %
01.10.2016 09:04 12,3 C 94 % 1011,6 hPa 0,0 l/m 2,0 km/h (1 Bft) S-SW 205 2 min 0,000 mm 0,5 UV-I 221 W/m 11,4 C 12,3 C 4,8 km/h (1 Bft) 98,00 %
01.10.2016 09:06 12,4 C 94 % 1011,6 hPa 0,0 l/m 1,0 km/h (0 Bft) S-SW 205 2 min 0,000 mm 0,6 UV-I 226 W/m 11,5 C 12,4 C 1,6 km/h (1 Bft) 97,87 %
01.10.2016 09:08 12,4 C 94 % 1011,6 hPa 0,0 l/m 2,0 km/h (1 Bft) S-SW 205 2 min 0,000 mm 0,6 UV-I 231 W/m 11,5 C 12,4 C 3,2 km/h (1 Bft) 97,87 %
01.10.2016 09:10 12,4 C 93 % 1011,6 hPa 0,0 l/m 1,6 km/h (1 Bft) S-SW 205 2 min 0,000 mm 0,6 UV-I 245 W/m 11,3 C 12,4 C 3,2 km/h (1 Bft) 98,00 %
01.10.2016 09:12 12,4 C 93 % 1011,6 hPa 0,0 l/m 1,2 km/h (1 Bft) S-SW 205 2 min 0,000 mm 0,6 UV-I 255 W/m 11,3 C 12,4 C 1,6 km/h (1 Bft) 97,73 %
01.10.2016 09:14 12,5 C 93 % 1011,6 hPa 0,0 l/m 1,0 km/h (0 Bft) S-SW 205 2 min 0,000 mm 0,7 UV-I 269 W/m 11,4 C 12,5 C 3,2 km/h (1 Bft) 94,00 %
01.10.2016 09:16 12,7 C 94 % 1011,6 hPa 0,0 l/m 0,4 km/h (0 Bft) S-SW 205 2 min 0,000 mm 0,7 UV-I 285 W/m 11,8 C 12,7 C 1,6 km/h (1 Bft) 97,56 %
01.10.2016 09:18 12,9 C 93 % 1011,6 hPa 0,0 l/m 0,1 km/h (0 Bft) S-SW 205 2 min 0,000 mm 0,8 UV-I 299 W/m 11,8 C 12,9 C 1,6 km/h (1 Bft) 97,87 %
01.10.2016 09:20 13,1 C 93 % 1011,6 hPa 0,0 l/m 0,2 km/h (0 Bft) S-SW 205 2 min 0,000 mm 0,8 UV-I 333 W/m 12,0 C 13,1 C 1,6 km/h (1 Bft) 98,00 %
01.10.2016 09:22 13,3 C 93 % 1011,6 hPa 0,0 l/m 0,3 km/h (0 Bft) S-SW 205 2 min 0,000 mm 0,8 UV-I 310 W/m 12,2 C 13,3 C 1,6 km/h (1 Bft) 95,74 %
01.10.2016 09:24 13,4 C 92 % 1011,5 hPa 0,0 l/m 0,3 km/h (0 Bft) S-SW 205 2 min 0,000 mm 0,8 UV-I 304 W/m 12,1 C 13,4 C 1,6 km/h (1 Bft) 97,87 %
01.10.2016 09:26 13,6 C 92 % 1011,5 hPa 0,0 l/m 3,0 km/h (1 Bft) NO 53 2 min 0,000 mm 0,8 UV-I 294 W/m 12,3 C 13,6 C 6,4 km/h (2 Bft) 98,00 %
01.10.2016 09:28 13,8 C 92 % 1011,4 hPa 0,0 l/m 4,6 km/h (1 Bft) NO 44 2 min 0,000 mm 0,9 UV-I 316 W/m 12,5 C 13,8 C 6,4 km/h (2 Bft) 97,37 %
01.10.2016 09:30 13,8 C 89 % 1011,4 hPa 0,0 l/m 6,7 km/h (2 Bft) O-NO 69 2 min 0,000 mm 0,9 UV-I 342 W/m 12,0 C 13,6 C 9,7 km/h (2 Bft) 98,00 %
01.10.2016 09:32 13,9 C 90 % 1011,5 hPa 0,0 l/m 4,7 km/h (1 Bft) O-NO 65 2 min 0,000 mm 0,9 UV-I 344 W/m 12,3 C 13,9 C 6,4 km/h (2 Bft) 96,00 %
01.10.2016 09:34 14,1 C 90 % 1011,5 hPa 0,0 l/m 5,8 km/h (2 Bft) NO 46 2 min 0,000 mm 1,0 UV-I 356 W/m 12,5 C 14,1 C 8,0 km/h (2 Bft) 97,87 %
01.10.2016 09:36 14,3 C 88 % 1011,5 hPa 0,0 l/m 5,3 km/h (1 Bft) O-NO 62 2 min 0,000 mm 1,0 UV-I 339 W/m 12,3 C 14,3 C 8,0 km/h (2 Bft) 100,00 %
01.10.2016 09:38 14,4 C 88 % 1011,5 hPa 0,0 l/m 4,8 km/h (1 Bft) NO 36 2 min 0,000 mm 1,0 UV-I 353 W/m 12,4 C 14,4 C 8,0 km/h (2 Bft) 98,11 %
01.10.2016 09:40 14,5 C 88 % 1011,4 hPa 0,0 l/m 4,4 km/h (1 Bft) O-NO 57 2 min 0,000 mm 1,0 UV-I 363 W/m 12,5 C 14,5 C 8,0 km/h (2 Bft) 100,00 %
01.10.2016 09:42 14,5 C 86 % 1011,4 hPa 0,0 l/m 5,8 km/h (2 Bft) NO 55 2 min 0,000 mm 1,0 UV-I 343 W/m 12,2 C 14,5 C 8,0 km/h (2 Bft) 100,00 %
01.10.2016 09:44 14,6 C 87 % 1011,4 hPa 0,0 l/m 4,3 km/h (1 Bft) NO 51 2 min 0,000 mm 1,0 UV-I 344 W/m 12,5 C 14,6 C 6,4 km/h (2 Bft) 98,11 %
01.10.2016 09:46 14,8 C 86 % 1011,4 hPa 0,0 l/m 4,5 km/h (1 Bft) NO 51 2 min 0,000 mm 1,0 UV-I 308 W/m 12,5 C 14,8 C 6,4 km/h (2 Bft) 100,00 %
01.10.2016 09:48 14,9 C 85 % 1011,5 hPa 0,0 l/m 2,6 km/h (1 Bft) O-NO 63 2 min 0,000 mm 1,0 UV-I 292 W/m 12,4 C 14,9 C 4,8 km/h (1 Bft) 100,00 %
01.10.2016 09:50 14,8 C 85 % 1011,4 hPa 0,0 l/m 1,5 km/h (1 Bft) O-NO 63 2 min 0,000 mm 1,0 UV-I 306 W/m 12,3 C 14,8 C 3,2 km/h (1 Bft) 100,00 %
01.10.2016 09:52 14,9 C 86 % 1011,4 hPa 0,0 l/m 2,8 km/h (1 Bft) NO 48 2 min 0,000 mm 1,1 UV-I 287 W/m 12,6 C 14,9 C 4,8 km/h (1 Bft) 100,00 %
01.10.2016 09:54 14,9 C 85 % 1011,5 hPa 0,0 l/m 2,3 km/h (1 Bft) NO 48 2 min 0,000 mm 1,1 UV-I 291 W/m 12,4 C 14,9 C 4,8 km/h (1 Bft) 98,00 %
01.10.2016 09:56 15,0 C 86 % 1011,4 hPa 0,0 l/m 2,4 km/h (1 Bft) NO 44 2 min 0,000 mm 1,2 UV-I 342 W/m 12,7 C 15,0 C 6,4 km/h (2 Bft) 100,00 %
01.10.2016 09:58 15,2 C 86 % 1011,4 hPa 0,0 l/m 1,0 km/h (0 Bft) N 9 2 min 0,000 mm 1,2 UV-I 345 W/m 12,9 C 15,2 C 3,2 km/h (1 Bft) 96,23 %
01.10.2016 10:00 15,3 C 86 % 1011,4 hPa 0,0 l/m 0,8 km/h (0 Bft) N-NW 345 2 min 0,152 mm 1,2 UV-I 340 W/m 13,0 C 15,3 C 1,6 km/h (1 Bft) 100,00 %
01.10.2016 10:02 15,2 C 85 % 1011,5 hPa 0,0 l/m 0,7 km/h (0 Bft) N-NW 346 2 min 0,000 mm 1,2 UV-I 339 W/m 12,7 C 15,2 C 1,6 km/h (1 Bft) 100,00 %
01.10.2016 10:04 15,2 C 85 % 1011,4 hPa 0,0 l/m 3,0 km/h (1 Bft) NO 34 2 min 0,000 mm 1,3 UV-I 351 W/m 12,7 C 15,2 C 6,4 km/h (2 Bft) 100,00 %
01.10.2016 10:06 15,3 C 86 % 1011,4 hPa 0,0 l/m 4,2 km/h (1 Bft) N-NO 22 2 min 0,000 mm 1,3 UV-I 333 W/m 13,0 C 15,3 C 8,0 km/h (2 Bft) 100,00 %
01.10.2016 10:08 15,3 C 86 % 1011,5 hPa 0,0 l/m 2,4 km/h (1 Bft) N-NO 27 2 min 0,000 mm 1,3 UV-I 368 W/m 13,0 C 15,3 C 4,8 km/h (1 Bft) 97,87 %
01.10.2016 10:10 15,3 C 85 % 1011,5 hPa 0,0 l/m 2,1 km/h (1 Bft) N-NO 19 2 min 0,000 mm 1,4 UV-I 389 W/m 12,8 C 15,3 C 4,8 km/h (1 Bft) 100,00 %
01.10.2016 10:12 15,4 C 87 % 1011,5 hPa 0,0 l/m 4,1 km/h (1 Bft) N-NO 29 2 min 0,000 mm 1,4 UV-I 405 W/m 13,2 C 15,4 C 6,4 km/h (2 Bft) 100,00 %
01.10.2016 10:14 15,5 C 84 % 1011,5 hPa 0,0 l/m 4,9 km/h (1 Bft) N-NO 29 2 min 0,000 mm 1,4 UV-I 402 W/m 12,8 C 15,5 C 8,0 km/h (2 Bft) 100,00 %
01.10.2016 10:16 15,7 C 86 % 1011,5 hPa 0,0 l/m 6,0 km/h (2 Bft) N-NO 22 2 min 0,000 mm 1,5 UV-I 411 W/m 13,4 C 15,7 C 8,0 km/h (2 Bft) 97,62 %
01.10.2016 10:18 15,8 C 85 % 1011,5 hPa 0,0 l/m 5,5 km/h (1 Bft) N-NO 26 2 min 0,000 mm 1,5 UV-I 418 W/m 13,3 C 15,8 C 9,7 km/h (2 Bft) 100,00 %
01.10.2016 10:20 15,8 C 84 % 1011,4 hPa 0,0 l/m 4,1 km/h (1 Bft) N-NO 30 2 min 0,000 mm 1,5 UV-I 419 W/m 13,1 C 15,8 C 8,0 km/h (2 Bft) 97,87 %
01.10.2016 10:22 15,8 C 84 % 1011,4 hPa 0,0 l/m 1,6 km/h (1 Bft) N 5 2 min 0,000 mm 1,5 UV-I 398 W/m 13,1 C 15,8 C 3,2 km/h (1 Bft) 100,00 %
01.10.2016 10:24 15,9 C 84 % 1011,4 hPa 0,0 l/m 5,5 km/h (1 Bft) N-NO 18 2 min 0,000 mm 1,5 UV-I 386 W/m 13,2 C 15,9 C 14,5 km/h (3 Bft) 100,00 %
01.10.2016 10:26 15,9 C 83 % 1011,4 hPa 0,0 l/m 5,8 km/h (2 Bft) N 5 2 min 0,000 mm 1,6 UV-I 419 W/m 13,0 C 15,9 C 9,7 km/h (2 Bft) 100,00 %
01.10.2016 10:28 16,0 C 84 % 1011,3 hPa 0,0 l/m 4,8 km/h (1 Bft) N-NO 24 2 min 0,000 mm 1,6 UV-I 407 W/m 13,3 C 16,0 C 8,0 km/h (2 Bft) 100,00 %
01.10.2016 10:30 16,1 C 83 % 1011,3 hPa 0,0 l/m 4,8 km/h (1 Bft) N-NO 16 2 min 0,000 mm 1,6 UV-I 404 W/m 13,2 C 16,1 C 9,7 km/h (2 Bft) 100,00 %
01.10.2016 10:32 16,1 C 83 % 1011,3 hPa 0,0 l/m 5,2 km/h (1 Bft) N-NO 23 2 min 0,000 mm 1,7 UV-I 416 W/m 13,2 C 16,1 C 9,7 km/h (2 Bft) 100,00 %
01.10.2016 10:34 16,1 C 82 % 1011,4 hPa 0,0 l/m 7,5 km/h (2 Bft) NO 42 2 min 0,000 mm 1,7 UV-I 421 W/m 13,0 C 15,5 C 12,9 km/h (3 Bft) 97,87 %
01.10.2016 10:36 16,1 C 83 % 1011,4 hPa 0,0 l/m 3,8 km/h (1 Bft) NO 34 2 min 0,000 mm 1,7 UV-I 408 W/m 13,2 C 16,1 C 8,0 km/h (2 Bft) 97,87 %
01.10.2016 10:38 16,2 C 83 % 1011,4 hPa 0,0 l/m 5,3 km/h (1 Bft) N-NO 28 2 min 0,000 mm 1,7 UV-I 423 W/m 13,3 C 16,2 C 8,0 km/h (2 Bft) 100,00 %
01.10.2016 10:40 16,3 C 83 % 1011,4 hPa 0,0 l/m 6,1 km/h (2 Bft) NO 49 2 min 0,000 mm 1,8 UV-I 434 W/m 13,4 C 16,3 C 8,0 km/h (2 Bft) 100,00 %
01.10.2016 10:42 16,4 C 84 % 1011,4 hPa 0,0 l/m 5,8 km/h (2 Bft) NO 42 2 min 0,000 mm 1,8 UV-I 438 W/m 13,7 C 16,4 C 9,7 km/h (2 Bft) 97,87 %
01.10.2016 10:44 16,4 C 83 % 1011,3 hPa 0,0 l/m 2,3 km/h (1 Bft) N-NO 19 2 min 0,000 mm 1,8 UV-I 428 W/m 13,5 C 16,4 C 4,8 km/h (1 Bft) 97,56 %
01.10.2016 10:46 16,6 C 84 % 1011,3 hPa 0,0 l/m 3,1 km/h (1 Bft) N 5 2 min 0,000 mm 1,8 UV-I 424 W/m 13,9 C 16,6 C 4,8 km/h (1 Bft) 96,00 %
01.10.2016 10:48 16,5 C 83 % 1011,4 hPa 0,0 l/m 1,9 km/h (1 Bft) N-NW 331 2 min 0,000 mm 1,9 UV-I 437 W/m 13,6 C 16,5 C 4,8 km/h (1 Bft) 98,00 %
01.10.2016 10:50 16,4 C 83 % 1011,4 hPa 0,0 l/m 1,8 km/h (1 Bft) N-NO 28 2 min 0,000 mm 1,9 UV-I 455 W/m 13,5 C 16,4 C 3,2 km/h (1 Bft) 97,73 %
01.10.2016 10:52 16,3 C 83 % 1011,4 hPa 0,0 l/m 3,0 km/h (1 Bft) NW 317 2 min 0,000 mm 1,9 UV-I 462 W/m 13,4 C 16,3 C 6,4 km/h (2 Bft) 95,24 %
01.10.2016 10:54 16,3 C 83 % 1011,4 hPa 0,0 l/m 3,3 km/h (1 Bft) N-NO 17 2 min 0,000 mm 2,0 UV-I 472 W/m 13,4 C 16,3 C 8,0 km/h (2 Bft) 98,00 %
01.10.2016 10:56 16,4 C 84 % 1011,4 hPa 0,0 l/m 2,2 km/h (1 Bft) N-NO 19 2 min 0,000 mm 2,0 UV-I 472 W/m 13,7 C 16,4 C 8,0 km/h (2 Bft) 96,15 %
01.10.2016 10:58 16,4 C 83 % 1011,4 hPa 0,0 l/m 2,1 km/h (1 Bft) N 360 2 min 0,000 mm 2,1 UV-I 509 W/m 13,5 C 16,4 C 4,8 km/h (1 Bft) 94,87 %
01.10.2016 11:00 16,6 C 84 % 1011,4 hPa 0,0 l/m 2,6 km/h (1 Bft) N 349 2 min 0,229 mm 2,1 UV-I 510 W/m 13,9 C 16,6 C 4,8 km/h (1 Bft) 98,11 %
01.10.2016 11:02 16,7 C 83 % 1011,4 hPa 0,0 l/m 1,1 km/h (1 Bft) N 355 2 min 0,000 mm 2,2 UV-I 519 W/m 13,8 C 16,7 C 3,2 km/h (1 Bft) 97,87 %
01.10.2016 11:04 16,8 C 83 % 1011,4 hPa 0,0 l/m 2,1 km/h (1 Bft) N 5 2 min 0,000 mm 2,2 UV-I 524 W/m 13,9 C 16,8 C 4,8 km/h (1 Bft) 97,87 %
01.10.2016 11:06 16,9 C 83 % 1011,4 hPa 0,0 l/m 2,6 km/h (1 Bft) N-NO 24 2 min 0,000 mm 2,3 UV-I 533 W/m 14,0 C 16,9 C 8,0 km/h (2 Bft) 95,74 %
01.10.2016 11:08 17,0 C 81 % 1011,3 hPa 0,0 l/m 6,5 km/h (2 Bft) NO 35 2 min 0,000 mm 2,2 UV-I 516 W/m 13,7 C 17,0 C 11,3 km/h (2 Bft) 95,74 %
01.10.2016 11:10 17,1 C 83 % 1011,4 hPa 0,0 l/m 4,4 km/h (1 Bft) N-NO 25 2 min 0,000 mm 2,3 UV-I 521 W/m 14,2 C 17,1 C 6,4 km/h (2 Bft) 95,12 %
01.10.2016 11:12 17,2 C 81 % 1011,4 hPa 0,0 l/m 1,0 km/h (0 Bft) N-NW 331 2 min 0,000 mm 2,3 UV-I 528 W/m 13,9 C 17,2 C 1,6 km/h (1 Bft) 98,00 %
01.10.2016 11:14 17,2 C 81 % 1011,4 hPa 0,0 l/m 2,9 km/h (1 Bft) N 5 2 min 0,000 mm 2,2 UV-I 483 W/m 13,9 C 17,2 C 4,8 km/h (1 Bft) 97,56 %
01.10.2016 11:16 17,2 C 81 % 1011,4 hPa 0,0 l/m 2,3 km/h (1 Bft) N 5 2 min 0,000 mm 2,2 UV-I 491 W/m 13,9 C 17,2 C 6,4 km/h (2 Bft) 100,00 %
01.10.2016 11:18 17,3 C 80 % 1011,4 hPa 0,0 l/m 4,1 km/h (1 Bft) N-NO 17 2 min 0,000 mm 2,1 UV-I 439 W/m 13,8 C 17,3 C 8,0 km/h (2 Bft) 97,87 %
01.10.2016 11:20 17,2 C 78 % 1011,3 hPa 0,0 l/m 1,2 km/h (1 Bft) N 360 2 min 0,000 mm 2,0 UV-I 386 W/m 13,3 C 17,2 C 3,2 km/h (1 Bft) 100,00 %
01.10.2016 11:22 17,1 C 79 % 1011,4 hPa 0,0 l/m 2,0 km/h (1 Bft) N-NO 21 2 min 0,000 mm 2,0 UV-I 374 W/m 13,4 C 17,1 C 4,8 km/h (1 Bft) 91,49 %
01.10.2016 11:24 17,1 C 80 % 1011,4 hPa 0,0 l/m 5,9 km/h (2 Bft) N-NO 31 2 min 0,000 mm 2,0 UV-I 381 W/m 13,6 C 17,1 C 8,0 km/h (2 Bft) 100,00 %
01.10.2016 11:26 17,2 C 80 % 1011,4 hPa 0,0 l/m 5,4 km/h (1 Bft) N-NO 12 2 min 0,000 mm 2,1 UV-I 373 W/m 13,7 C 17,2 C 6,4 km/h (2 Bft) 100,00 %
01.10.2016 11:28 17,3 C 79 % 1011,4 hPa 0,0 l/m 2,6 km/h (1 Bft) N-NO 16 2 min 0,000 mm 2,1 UV-I 403 W/m 13,6 C 17,3 C 6,4 km/h (2 Bft) 100,00 %
01.10.2016 11:30 17,3 C 79 % 1011,4 hPa 0,0 l/m 1,2 km/h (1 Bft) N 355 2 min 0,000 mm 2,3 UV-I 403 W/m 13,6 C 17,3 C 3,2 km/h (1 Bft) 100,00 %
01.10.2016 11:32 17,3 C 77 % 1011,4 hPa 0,0 l/m 1,6 km/h (1 Bft) N 355 2 min 0,000 mm 2,5 UV-I 554 W/m 13,2 C 17,3 C 3,2 km/h (1 Bft) 100,00 %
01.10.2016 11:34 17,2 C 79 % 1011,3 hPa 0,0 l/m 0,8 km/h (0 Bft) N 355 2 min 0,000 mm 2,4 UV-I 486 W/m 13,5 C 17,2 C 1,6 km/h (1 Bft) 100,00 %
01.10.2016 11:36 17,3 C 80 % 1011,4 hPa 0,0 l/m 0,5 km/h (0 Bft) N 355 2 min 0,000 mm 2,3 UV-I 461 W/m 13,8 C 17,3 C 3,2 km/h (1 Bft) 100,00 %
01.10.2016 11:38 17,5 C 78 % 1011,3 hPa 0,0 l/m 1,3 km/h (1 Bft) N-NO 18 2 min 0,000 mm 2,4 UV-I 490 W/m 13,6 C 17,5 C 3,2 km/h (1 Bft) 100,00 %
01.10.2016 11:40 17,7 C 77 % 1011,4 hPa 0,0 l/m 3,3 km/h (1 Bft) N 9 2 min 0,000 mm 2,4 UV-I 475 W/m 13,6 C 17,7 C 6,4 km/h (2 Bft) 100,00 %
01.10.2016 11:42 17,7 C 77 % 1011,3 hPa 0,0 l/m 0,7 km/h (0 Bft) N 9 2 min 0,000 mm 2,6 UV-I 560 W/m 13,6 C 17,7 C 3,2 km/h (1 Bft) 96,15 %
01.10.2016 11:44 17,7 C 76 % 1011,3 hPa 0,0 l/m 2,9 km/h (1 Bft) N-NO 24 2 min 0,000 mm 2,7 UV-I 583 W/m 13,4 C 17,7 C 4,8 km/h (1 Bft) 100,00 %
01.10.2016 11:46 17,7 C 77 % 1011,3 hPa 0,0 l/m 2,7 km/h (1 Bft) N-NO 13 2 min 0,000 mm 2,7 UV-I 562 W/m 13,6 C 17,7 C 6,4 km/h (2 Bft) 97,87 %
01.10.2016 11:48 17,9 C 75 % 1011,3 hPa 0,0 l/m 1,6 km/h (1 Bft) N-NO 13 2 min 0,000 mm 2,7 UV-I 566 W/m 13,4 C 17,9 C 3,2 km/h (1 Bft) 97,87 %
01.10.2016 11:50 17,9 C 76 % 1011,2 hPa 0,0 l/m 2,1 km/h (1 Bft) NO 35 2 min 0,000 mm 2,7 UV-I 571 W/m 13,6 C 17,9 C 3,2 km/h (1 Bft) 100,00 %
01.10.2016 11:52 17,9 C 75 % 1011,2 hPa 0,0 l/m 0,8 km/h (0 Bft) N-NO 24 2 min 0,000 mm 2,7 UV-I 551 W/m 13,4 C 17,9 C 3,2 km/h (1 Bft) 97,87 %
01.10.2016 11:55 18,2 C 75 % 1011,3 hPa 0,0 l/m 1,6 km/h (1 Bft) W-NW 292 3 min 0,000 mm 2,6 UV-I 520 W/m 13,7 C 18,2 C 6,4 km/h (2 Bft) 100,00 %
01.10.2016 12:00 18,1 C 77 % 1011,1 hPa 0,0 l/m 1,6 km/h (1 Bft) W-NW 292 5 min 0,279 mm 2,4 UV-I 426 W/m 14,0 C 18,1 C 6,4 km/h (2 Bft) 100,00 %
01.10.2016 12:02 18,3 C 75 % 1011,1 hPa 0,0 l/m 0,5 km/h (0 Bft) N-NW 338 2 min 0,000 mm 2,5 UV-I 439 W/m 13,8 C 18,3 C 1,6 km/h (1 Bft) 98,94 %
01.10.2016 12:04 18,2 C 73 % 1011,1 hPa 0,0 l/m 2,5 km/h (1 Bft) NW 325 2 min 0,000 mm 2,5 UV-I 450 W/m 13,3 C 18,2 C 3,2 km/h (1 Bft) 100,00 %
01.10.2016 12:06 18,1 C 74 % 1011,1 hPa 0,0 l/m 0,7 km/h (0 Bft) NW 325 2 min 0,000 mm 2,5 UV-I 451 W/m 13,4 C 18,1 C 3,2 km/h (1 Bft) 100,00 %
01.10.2016 12:08 18,1 C 73 % 1011,1 hPa 0,0 l/m 1,5 km/h (1 Bft) NW 311 2 min 0,000 mm 2,5 UV-I 457 W/m 13,2 C 18,1 C 3,2 km/h (1 Bft) 100,00 %
01.10.2016 12:10 18,1 C 75 % 1011,1 hPa 0,0 l/m 0,4 km/h (0 Bft) NW 311 2 min 0,000 mm 2,7 UV-I 519 W/m 13,6 C 18,1 C 1,6 km/h (1 Bft) 97,37 %
01.10.2016 12:12 18,3 C 76 % 1011,1 hPa 0,0 l/m 1,1 km/h (1 Bft) N-NW 339 2 min 0,000 mm 2,6 UV-I 486 W/m 14,0 C 18,3 C 3,2 km/h (1 Bft) 100,00 %
01.10.2016 12:14 18,6 C 74 % 1011,1 hPa 0,0 l/m 1,6 km/h (1 Bft) N-NO 13 2 min 0,000 mm 2,6 UV-I 476 W/m 13,9 C 18,6 C 4,8 km/h (1 Bft) 98,11 %
01.10.2016 12:16 18,7 C 73 % 1011,1 hPa 0,0 l/m 3,6 km/h (1 Bft) N-NO 31 2 min 0,000 mm 2,5 UV-I 435 W/m 13,8 C 18,7 C 6,4 km/h (2 Bft) 100,00 %
01.10.2016 12:18 18,7 C 73 % 1011,1 hPa 0,0 l/m 2,5 km/h (1 Bft) N-NO 31 2 min 0,000 mm 2,7 UV-I 514 W/m 13,8 C 18,7 C 4,8 km/h (1 Bft) 100,00 %
01.10.2016 12:20 18,7 C 72 % 1011,1 hPa 0,0 l/m 1,1 km/h (1 Bft) N-NO 21 2 min 0,000 mm 2,8 UV-I 563 W/m 13,5 C 18,7 C 3,2 km/h (1 Bft) 100,00 %
01.10.2016 12:22 18,8 C 72 % 1011,1 hPa 0,0 l/m 0,7 km/h (0 Bft) N-NO 19 2 min 0,000 mm 2,8 UV-I 554 W/m 13,6 C 18,8 C 1,6 km/h (1 Bft) 100,00 %
01.10.2016 12:24 18,7 C 72 % 1011,1 hPa 0,0 l/m 0,5 km/h (0 Bft) N-NO 16 2 min 0,000 mm 2,7 UV-I 573 W/m 13,5 C 18,7 C 1,6 km/h (1 Bft) 100,00 %
01.10.2016 12:26 18,9 C 73 % 1011,0 hPa 0,0 l/m 2,2 km/h (1 Bft) N-NO 28 2 min 0,000 mm 2,7 UV-I 609 W/m 13,9 C 18,9 C 4,8 km/h (1 Bft) 100,00 %
01.10.2016 12:28 18,8 C 71 % 1011,0 hPa 0,0 l/m 0,4 km/h (0 Bft) N-NO 28 2 min 0,000 mm 2,6 UV-I 624 W/m 13,4 C 18,8 C 1,6 km/h (1 Bft) 98,11 %
01.10.2016 12:30 18,9 C 73 % 1011,0 hPa 0,0 l/m 0,3 km/h (0 Bft) N-NO 28 2 min 0,000 mm 2,9 UV-I 590 W/m 13,9 C 18,9 C 1,6 km/h (1 Bft) 100,00 %
01.10.2016 12:32 19,0 C 73 % 1010,9 hPa 0,0 l/m 0,8 km/h (0 Bft) N-NW 333 2 min 0,000 mm 2,7 UV-I 509 W/m 14,0 C 19,0 C 3,2 km/h (1 Bft) 100,00 %
01.10.2016 12:34 19,0 C 72 % 1010,9 hPa 0,0 l/m 1,9 km/h (1 Bft) N-NO 19 2 min 0,000 mm 2,4 UV-I 411 W/m 13,8 C 19,0 C 6,4 km/h (2 Bft) 100,00 %
01.10.2016 12:36 19,2 C 73 % 1010,9 hPa 0,0 l/m 5,2 km/h (1 Bft) N-NO 28 2 min 0,000 mm 2,3 UV-I 381 W/m 14,2 C 19,2 C 11,3 km/h (2 Bft) 95,74 %
01.10.2016 12:38 19,1 C 71 % 1010,9 hPa 0,0 l/m 2,7 km/h (1 Bft) N-NO 24 2 min 0,000 mm 2,4 UV-I 417 W/m 13,7 C 19,1 C 6,4 km/h (2 Bft) 97,44 %
01.10.2016 12:40 19,1 C 71 % 1010,9 hPa 0,0 l/m 3,7 km/h (1 Bft) N-NO 24 2 min 0,000 mm 2,5 UV-I 472 W/m 13,7 C 19,1 C 4,8 km/h (1 Bft) 97,87 %
01.10.2016 12:42 19,0 C 70 % 1010,9 hPa 0,0 l/m 2,4 km/h (1 Bft) N-NO 23 2 min 0,000 mm 2,6 UV-I 474 W/m 13,4 C 19,0 C 4,8 km/h (1 Bft) 96,00 %
01.10.2016 12:44 19,0 C 70 % 1010,9 hPa 0,0 l/m 2,1 km/h (1 Bft) N-NO 26 2 min 0,000 mm 2,6 UV-I 484 W/m 13,4 C 19,0 C 4,8 km/h (1 Bft) 98,08 %
01.10.2016 12:46 19,2 C 72 % 1010,8 hPa 0,0 l/m 2,9 km/h (1 Bft) N-NO 26 2 min 0,000 mm 2,8 UV-I 562 W/m 14,0 C 19,2 C 6,4 km/h (2 Bft) 97,37 %
01.10.2016 12:48 19,3 C 72 % 1010,8 hPa 0,0 l/m 1,1 km/h (1 Bft) N-NO 26 2 min 0,000 mm 3,0 UV-I 616 W/m 14,1 C 19,3 C 3,2 km/h (1 Bft) 98,00 %
01.10.2016 12:50 19,5 C 74 % 1010,7 hPa 0,0 l/m 2,8 km/h (1 Bft) N-NO 19 2 min 0,000 mm 3,0 UV-I 625 W/m 14,7 C 19,5 C 4,8 km/h (1 Bft) 98,00 %
01.10.2016 12:52 19,8 C 70 % 1010,8 hPa 0,0 l/m 4,4 km/h (1 Bft) N-NO 17 2 min 0,000 mm 2,9 UV-I 585 W/m 14,2 C 19,8 C 8,0 km/h (2 Bft) 97,37 %
01.10.2016 12:54 19,7 C 70 % 1010,8 hPa 0,0 l/m 2,9 km/h (1 Bft) N-NO 13 2 min 0,000 mm 2,8 UV-I 525 W/m 14,1 C 19,7 C 6,4 km/h (2 Bft) 97,87 %
01.10.2016 12:56 19,7 C 69 % 1010,8 hPa 0,0 l/m 2,1 km/h (1 Bft) N 355 2 min 0,000 mm 3,0 UV-I 592 W/m 13,8 C 19,7 C 4,8 km/h (1 Bft) 98,11 %
01.10.2016 12:58 19,6 C 70 % 1010,7 hPa 0,0 l/m 1,4 km/h (1 Bft) N 355 2 min 0,000 mm 3,0 UV-I 615 W/m 14,0 C 19,6 C 3,2 km/h (1 Bft) 96,00 %
01.10.2016 13:00 19,6 C 69 % 1010,7 hPa 0,0 l/m 2,5 km/h (1 Bft) N-NW 347 2 min 0,000 mm 3,0 UV-I 612 W/m 13,8 C 19,6 C 4,8 km/h (1 Bft) 97,56 %
01.10.2016 13:02 19,7 C 70 % 1010,7 hPa 0,0 l/m 1,3 km/h (1 Bft) N-NW 329 2 min 0,305 mm 3,0 UV-I 620 W/m 14,1 C 19,7 C 3,2 km/h (1 Bft) 95,12 %
01.10.2016 13:04 20,0 C 70 % 1010,7 hPa 0,0 l/m 5,2 km/h (1 Bft) NO 39 2 min 0,000 mm 3,0 UV-I 613 W/m 14,4 C 20,0 C 9,7 km/h (2 Bft) 98,21 %
01.10.2016 13:06 20,1 C 67 % 1010,7 hPa 0,0 l/m 2,4 km/h (1 Bft) N-NO 28 2 min 0,000 mm 3,0 UV-I 605 W/m 13,8 C 20,1 C 4,8 km/h (1 Bft) 97,87 %
01.10.2016 13:08 20,1 C 69 % 1010,7 hPa 0,0 l/m 3,4 km/h (1 Bft) NO 43 2 min 0,000 mm 2,9 UV-I 604 W/m 14,2 C 20,1 C 4,8 km/h (1 Bft) 100,00 %
01.10.2016 13:10 20,1 C 67 % 1010,6 hPa 0,0 l/m 3,8 km/h (1 Bft) N-NO 28 2 min 0,000 mm 2,9 UV-I 588 W/m 13,8 C 20,1 C 4,8 km/h (1 Bft) 100,00 %
01.10.2016 13:12 20,2 C 66 % 1010,6 hPa 0,0 l/m 4,0 km/h (1 Bft) N-NO 27 2 min 0,000 mm 3,1 UV-I 633 W/m 13,6 C 20,2 C 8,0 km/h (2 Bft) 100,00 %
01.10.2016 13:14 20,3 C 68 % 1010,6 hPa 0,0 l/m 1,4 km/h (1 Bft) N-NO 21 2 min 0,000 mm 3,1 UV-I 634 W/m 14,2 C 20,3 C 3,2 km/h (1 Bft) 100,00 %
01.10.2016 13:16 20,2 C 66 % 1010,6 hPa 0,0 l/m 3,6 km/h (1 Bft) N-NO 32 2 min 0,000 mm 3,0 UV-I 617 W/m 13,6 C 20,2 C 4,8 km/h (1 Bft) 97,96 %
01.10.2016 13:18 20,2 C 67 % 1010,6 hPa 0,0 l/m 1,6 km/h (1 Bft) N-NO 25 2 min 0,000 mm 3,0 UV-I 624 W/m 13,9 C 20,2 C 4,8 km/h (1 Bft) 97,44 %
01.10.2016 13:20 20,3 C 69 % 1010,6 hPa 0,0 l/m 1,7 km/h (1 Bft) N-NW 337 2 min 0,000 mm 2,9 UV-I 567 W/m 14,4 C 20,3 C 3,2 km/h (1 Bft) 97,87 %
01.10.2016 13:22 20,5 C 67 % 1010,6 hPa 0,0 l/m 2,6 km/h (1 Bft) N 355 2 min 0,000 mm 2,7 UV-I 504 W/m 14,2 C 20,5 C 4,8 km/h (1 Bft) 100,00 %
01.10.2016 13:24 20,5 C 66 % 1010,6 hPa 0,0 l/m 2,1 km/h (1 Bft) N-NW 334 2 min 0,000 mm 2,8 UV-I 554 W/m 13,9 C 20,5 C 4,8 km/h (1 Bft) 97,87 %
01.10.2016 13:26 20,4 C 65 % 1010,6 hPa 0,0 l/m 1,1 km/h (1 Bft) N-NW 336 2 min 0,000 mm 2,8 UV-I 568 W/m 13,6 C 20,4 C 3,2 km/h (1 Bft) 100,00 %
01.10.2016 13:28 20,3 C 64 % 1010,6 hPa 0,0 l/m 1,8 km/h (1 Bft) N-NO 15 2 min 0,000 mm 2,9 UV-I 606 W/m 13,3 C 20,3 C 4,8 km/h (1 Bft) 100,00 %
01.10.2016 13:30 20,4 C 66 % 1010,5 hPa 0,0 l/m 1,7 km/h (1 Bft) NW 315 2 min 0,000 mm 3,0 UV-I 623 W/m 13,8 C 20,4 C 4,8 km/h (1 Bft) 100,00 %
01.10.2016 13:32 20,4 C 67 % 1010,5 hPa 0,0 l/m 1,0 km/h (0 Bft) NW 315 2 min 0,000 mm 3,0 UV-I 616 W/m 14,1 C 20,4 C 1,6 km/h (1 Bft) 100,00 %
01.10.2016 13:34 20,4 C 65 % 1010,5 hPa 0,0 l/m 0,5 km/h (0 Bft) NW 315 2 min 0,000 mm 2,9 UV-I 609 W/m 13,6 C 20,4 C 1,6 km/h (1 Bft) 97,87 %
01.10.2016 13:36 20,7 C 67 % 1010,5 hPa 0,0 l/m 1,6 km/h (1 Bft) NO 34 2 min 0,000 mm 2,9 UV-I 588 W/m 14,3 C 20,7 C 4,8 km/h (1 Bft) 100,00 %
01.10.2016 13:38 20,8 C 63 % 1010,5 hPa 0,0 l/m 2,0 km/h (1 Bft) O-SO 110 2 min 0,000 mm 2,6 UV-I 488 W/m 13,5 C 20,8 C 4,8 km/h (1 Bft) 100,00 %
01.10.2016 13:40 20,8 C 64 % 1010,5 hPa 0,0 l/m 1,3 km/h (1 Bft) N-NW 340 2 min 0,000 mm 2,4 UV-I 387 W/m 13,7 C 20,8 C 3,2 km/h (1 Bft) 100,00 %
01.10.2016 13:42 20,8 C 64 % 1010,5 hPa 0,0 l/m 2,3 km/h (1 Bft) NW 323 2 min 0,000 mm 2,7 UV-I 507 W/m 13,7 C 20,8 C 3,2 km/h (1 Bft) 100,00 %
01.10.2016 13:44 20,8 C 63 % 1010,5 hPa 0,0 l/m 1,2 km/h (1 Bft) NW 323 2 min 0,000 mm 2,8 UV-I 620 W/m 13,5 C 20,8 C 3,2 km/h (1 Bft) 100,00 %
01.10.2016 13:46 20,7 C 63 % 1010,5 hPa 0,0 l/m 0,8 km/h (0 Bft) NW 323 2 min 0,000 mm 2,8 UV-I 601 W/m 13,4 C 20,7 C 3,2 km/h (1 Bft) 97,37 %
01.10.2016 13:48 20,7 C 65 % 1010,4 hPa 0,0 l/m 0,6 km/h (0 Bft) NW 324 2 min 0,000 mm 2,6 UV-I 493 W/m 13,9 C 20,7 C 3,2 km/h (1 Bft) 98,11 %
01.10.2016 13:50 20,8 C 65 % 1010,4 hPa 0,0 l/m 0,8 km/h (0 Bft) NW 309 2 min 0,000 mm 2,4 UV-I 438 W/m 14,0 C 20,8 C 4,8 km/h (1 Bft) 100,00 %
01.10.2016 13:52 20,8 C 63 % 1010,4 hPa 0,0 l/m 3,6 km/h (1 Bft) W-NW 288 2 min 0,000 mm 2,3 UV-I 385 W/m 13,5 C 20,8 C 6,4 km/h (2 Bft) 100,00 %
01.10.2016 13:54 20,8 C 63 % 1010,4 hPa 0,0 l/m 0,9 km/h (0 Bft) W-NW 293 2 min 0,000 mm 2,7 UV-I 542 W/m 13,5 C 20,8 C 3,2 km/h (1 Bft) 100,00 %
01.10.2016 13:56 20,8 C 63 % 1010,3 hPa 0,0 l/m 1,2 km/h (1 Bft) N-NW 340 2 min 0,000 mm 2,6 UV-I 556 W/m 13,5 C 20,8 C 3,2 km/h (1 Bft) 100,00 %
01.10.2016 13:58 20,8 C 63 % 1010,3 hPa 0,0 l/m 1,1 km/h (1 Bft) N-NW 340 2 min 0,000 mm 2,4 UV-I 455 W/m 13,5 C 20,8 C 3,2 km/h (1 Bft) 100,00 %
01.10.2016 14:00 20,8 C 64 % 1010,3 hPa 0,0 l/m 0,9 km/h (0 Bft) N-NW 341 2 min 0,330 mm 2,4 UV-I 452 W/m 13,7 C 20,8 C 3,2 km/h (1 Bft) 98,00 %
01.10.2016 14:02 21,0 C 63 % 1010,3 hPa 0,0 l/m 1,5 km/h (1 Bft) N-NW 342 2 min 0,000 mm 2,7 UV-I 564 W/m 13,7 C 21,0 C 3,2 km/h (1 Bft) 100,00 %
01.10.2016 14:04 21,1 C 64 % 1010,3 hPa 0,0 l/m 1,1 km/h (1 Bft) N-NW 338 2 min 0,000 mm 2,9 UV-I 633 W/m 14,0 C 21,1 C 3,2 km/h (1 Bft) 100,00 %
01.10.2016 14:06 21,2 C 62 % 1010,2 hPa 0,0 l/m 1,8 km/h (1 Bft) N-NW 340 2 min 0,000 mm 2,8 UV-I 636 W/m 13,6 C 21,2 C 3,2 km/h (1 Bft) 100,00 %
01.10.2016 14:08 21,2 C 61 % 1010,2 hPa 0,0 l/m 1,7 km/h (1 Bft) N-NO 15 2 min 0,000 mm 2,8 UV-I 604 W/m 13,4 C 21,2 C 4,8 km/h (1 Bft) 100,00 %
01.10.2016 14:10 21,1 C 62 % 1010,1 hPa 0,0 l/m 1,1 km/h (1 Bft) N-NO 15 2 min 0,000 mm 2,7 UV-I 600 W/m 13,5 C 21,1 C 3,2 km/h (1 Bft) 93,62 %
01.10.2016 14:12 21,3 C 64 % 1010,1 hPa 0,0 l/m 1,5 km/h (1 Bft) O-SO 113 2 min 0,000 mm 2,7 UV-I 596 W/m 14,2 C 21,3 C 3,2 km/h (1 Bft) 100,00 %
01.10.2016 14:14 21,4 C 63 % 1010,1 hPa 0,0 l/m 2,0 km/h (1 Bft) S-SO 151 2 min 0,000 mm 2,7 UV-I 613 W/m 14,1 C 21,4 C 4,8 km/h (1 Bft) 100,00 %
01.10.2016 14:16 21,6 C 61 % 1010,1 hPa 0,0 l/m 0,3 km/h (0 Bft) S-SO 151 2 min 0,000 mm 2,6 UV-I 604 W/m 13,7 C 21,6 C 1,6 km/h (1 Bft) 98,11 %
01.10.2016 14:18 21,8 C 62 % 1010,0 hPa 0,0 l/m 1,0 km/h (0 Bft) S-SO 151 2 min 0,000 mm 2,6 UV-I 585 W/m 14,2 C 21,8 C 1,6 km/h (1 Bft) 97,87 %
01.10.2016 14:20 21,9 C 62 % 1010,0 hPa 0,0 l/m 0,8 km/h (0 Bft) S-SO 151 2 min 0,000 mm 2,5 UV-I 553 W/m 14,3 C 21,9 C 3,2 km/h (1 Bft) 100,00 %
01.10.2016 14:22 22,0 C 63 % 1010,0 hPa 0,0 l/m 1,4 km/h (1 Bft) O-NO 77 2 min 0,000 mm 2,4 UV-I 535 W/m 14,6 C 22,0 C 3,2 km/h (1 Bft) 100,00 %
01.10.2016 14:24 21,9 C 63 % 1009,9 hPa 0,0 l/m 1,4 km/h (1 Bft) N-NO 22 2 min 0,000 mm 2,3 UV-I 476 W/m 14,5 C 21,9 C 4,8 km/h (1 Bft) 100,00 %
01.10.2016 14:26 21,8 C 62 % 1009,9 hPa 0,0 l/m 0,4 km/h (0 Bft) N-NO 22 2 min 0,000 mm 2,2 UV-I 486 W/m 14,2 C 21,8 C 1,6 km/h (1 Bft) 100,00 %
01.10.2016 14:28 21,7 C 61 % 1009,9 hPa 0,0 l/m 2,7 km/h (1 Bft) N-NO 25 2 min 0,000 mm 2,2 UV-I 478 W/m 13,8 C 21,7 C 4,8 km/h (1 Bft) 100,00 %
01.10.2016 14:30 21,7 C 63 % 1009,9 hPa 0,0 l/m 1,3 km/h (1 Bft) N-NO 25 2 min 0,000 mm 2,2 UV-I 478 W/m 14,3 C 21,7 C 3,2 km/h (1 Bft) 97,92 %
01.10.2016 14:32 21,8 C 64 % 1009,9 hPa 0,0 l/m 2,5 km/h (1 Bft) N-NO 25 2 min 0,000 mm 2,0 UV-I 413 W/m 14,7 C 21,8 C 4,8 km/h (1 Bft) 97,87 %
01.10.2016 14:34 21,8 C 61 % 1009,8 hPa 0,0 l/m 1,8 km/h (1 Bft) N 355 2 min 0,000 mm 1,8 UV-I 315 W/m 13,9 C 21,8 C 4,8 km/h (1 Bft) 95,74 %
01.10.2016 14:36 21,7 C 62 % 1009,8 hPa 0,0 l/m 0,6 km/h (0 Bft) N 355 0 min 0,000 mm 1,7 UV-I 306 W/m 14,1 C 21,7 C 1,6 km/h (1 Bft) 98,00 %
01.10.2016 14:38 21,7 C 62 % 1009,8 hPa 0,0 l/m 0,7 km/h (0 Bft) N-NW 348 2 min 0,000 mm 1,7 UV-I 309 W/m 14,1 C 21,7 C 3,2 km/h (1 Bft) 97,87 %
01.10.2016 14:40 21,6 C 61 % 1009,9 hPa 0,0 l/m 1,1 km/h (1 Bft) N-NW 348 2 min 0,000 mm 1,7 UV-I 332 W/m 13,7 C 21,6 C 1,6 km/h (1 Bft) 95,74 %
01.10.2016 14:42 21,6 C 61 % 1009,9 hPa 0,0 l/m 1,4 km/h (1 Bft) N-NW 348 2 min 0,000 mm 1,8 UV-I 391 W/m 13,7 C 21,6 C 3,2 km/h (1 Bft) 97,56 %
01.10.2016 14:44 21,6 C 61 % 1009,9 hPa 0,0 l/m 0,5 km/h (0 Bft) N-NW 348 2 min 0,000 mm 1,8 UV-I 399 W/m 13,7 C 21,6 C 1,6 km/h (1 Bft) 95,74 %
01.10.2016 14:46 21,7 C 61 % 1009,9 hPa 0,0 l/m 3,5 km/h (1 Bft) NO 40 2 min 0,000 mm 1,7 UV-I 360 W/m 13,8 C 21,7 C 6,4 km/h (2 Bft) 98,00 %
01.10.2016 14:48 21,7 C 62 % 1009,9 hPa 0,0 l/m 2,4 km/h (1 Bft) NO 40 2 min 0,000 mm 1,7 UV-I 360 W/m 14,1 C 21,7 C 3,2 km/h (1 Bft) 97,87 %
01.10.2016 14:50 21,8 C 64 % 1009,8 hPa 0,0 l/m 4,2 km/h (1 Bft) NO 42 2 min 0,000 mm 1,7 UV-I 349 W/m 14,7 C 21,8 C 6,4 km/h (2 Bft) 98,00 %
01.10.2016 14:52 21,8 C 61 % 1009,8 hPa 0,0 l/m 3,7 km/h (1 Bft) NO 42 2 min 0,000 mm 1,6 UV-I 335 W/m 13,9 C 21,8 C 6,4 km/h (2 Bft) 97,87 %
01.10.2016 14:54 21,7 C 62 % 1009,9 hPa 0,0 l/m 3,2 km/h (1 Bft) NO 42 2 min 0,000 mm 1,6 UV-I 316 W/m 14,1 C 21,7 C 4,8 km/h (1 Bft) 96,00 %
01.10.2016 14:56 21,7 C 62 % 1009,9 hPa 0,0 l/m 1,0 km/h (0 Bft) NO 42 2 min 0,000 mm 1,6 UV-I 319 W/m 14,1 C 21,7 C 3,2 km/h (1 Bft) 95,74 %
01.10.2016 14:58 21,7 C 62 % 1009,9 hPa 0,0 l/m 0,6 km/h (0 Bft) NO 42 2 min 0,000 mm 1,5 UV-I 326 W/m 14,1 C 21,7 C 1,6 km/h (1 Bft) 95,12 %
01.10.2016 15:00 21,7 C 62 % 1009,8 hPa 0,0 l/m 1,1 km/h (1 Bft) N-NO 13 2 min 0,000 mm 1,5 UV-I 323 W/m 14,1 C 21,7 C 3,2 km/h (1 Bft) 95,74 %
01.10.2016 15:02 21,7 C 62 % 1009,8 hPa 0,0 l/m 1,6 km/h (1 Bft) N-NO 14 2 min 0,279 mm 1,5 UV-I 342 W/m 14,1 C 21,7 C 3,2 km/h (1 Bft) 98,11 %
01.10.2016 15:04 21,8 C 63 % 1009,8 hPa 0,0 l/m 1,4 km/h (1 Bft) N 9 2 min 0,000 mm 1,6 UV-I 384 W/m 14,4 C 21,8 C 3,2 km/h (1 Bft) 100,00 %
01.10.2016 15:06 21,8 C 62 % 1009,8 hPa 0,0 l/m 0,8 km/h (0 Bft) N-NO 31 2 min 0,000 mm 1,6 UV-I 388 W/m 14,2 C 21,8 C 4,8 km/h (1 Bft) 100,00 %
01.10.2016 15:08 21,8 C 65 % 1009,7 hPa 0,0 l/m 4,4 km/h (1 Bft) N-NO 17 2 min 0,000 mm 1,5 UV-I 354 W/m 14,9 C 21,8 C 6,4 km/h (2 Bft) 100,00 %
01.10.2016 15:10 21,8 C 61 % 1009,7 hPa 0,0 l/m 4,0 km/h (1 Bft) N-NO 27 2 min 0,000 mm 1,4 UV-I 319 W/m 13,9 C 21,8 C 6,4 km/h (2 Bft) 98,39 %
01.10.2016 15:12 21,8 C 62 % 1009,6 hPa 0,0 l/m 1,2 km/h (1 Bft) N-NO 24 2 min 0,000 mm 1,4 UV-I 292 W/m 14,2 C 21,8 C 4,8 km/h (1 Bft) 100,00 %
01.10.2016 15:14 21,8 C 61 % 1009,7 hPa 0,0 l/m 2,3 km/h (1 Bft) NW 309 0 min 0,000 mm 1,3 UV-I 269 W/m 13,9 C 21,8 C 4,8 km/h (1 Bft) 100,00 %
01.10.2016 15:16 21,7 C 62 % 1009,7 hPa 0,0 l/m 0,8 km/h (0 Bft) NW 309 0 min 0,000 mm 1,2 UV-I 253 W/m 14,1 C 21,7 C 3,2 km/h (1 Bft) 100,00 %
01.10.2016 15:18 21,6 C 62 % 1009,7 hPa 0,0 l/m 0,5 km/h (0 Bft) NW 309 0 min 0,000 mm 1,2 UV-I 250 W/m 14,0 C 21,6 C 3,2 km/h (1 Bft) 100,00 %
01.10.2016 15:20 21,6 C 63 % 1009,7 hPa 0,0 l/m 0,7 km/h (0 Bft) NW 309 0 min 0,000 mm 1,2 UV-I 245 W/m 14,2 C 21,6 C 3,2 km/h (1 Bft) 100,00 %
01.10.2016 15:22 21,5 C 63 % 1009,7 hPa 0,0 l/m 0,6 km/h (0 Bft) NW 309 0 min 0,000 mm 1,1 UV-I 243 W/m 14,2 C 21,5 C 3,2 km/h (1 Bft) 100,00 %
01.10.2016 15:24 21,4 C 63 % 1009,7 hPa 0,0 l/m 1,0 km/h (0 Bft) NW 309 0 min 0,000 mm 1,1 UV-I 242 W/m 14,1 C 21,4 C 3,2 km/h (1 Bft) 100,00 %
01.10.2016 15:26 21,4 C 62 % 1009,7 hPa 0,0 l/m 0,6 km/h (0 Bft) NW 309 0 min 0,000 mm 1,1 UV-I 245 W/m 13,8 C 21,4 C 1,6 km/h (1 Bft) 100,00 %
01.10.2016 15:28 21,4 C 61 % 1009,6 hPa 0,0 l/m 0,2 km/h (0 Bft) NW 309 0 min 0,000 mm 1,1 UV-I 249 W/m 13,6 C 21,4 C 1,6 km/h (1 Bft) 100,00 %
01.10.2016 15:30 21,4 C 61 % 1009,5 hPa 0,0 l/m 0,4 km/h (0 Bft) NW 309 0 min 0,000 mm 1,1 UV-I 250 W/m 13,6 C 21,4 C 1,6 km/h (1 Bft) 100,00 %
01.10.2016 15:32 21,5 C 63 % 1009,6 hPa 0,0 l/m 0,9 km/h (0 Bft) NW 314 0 min 0,000 mm 1,1 UV-I 248 W/m 14,2 C 21,5 C 1,6 km/h (1 Bft) 100,00 %
01.10.2016 15:34 21,5 C 62 % 1009,6 hPa 0,0 l/m 0,5 km/h (0 Bft) NW 315 0 min 0,000 mm 1,1 UV-I 240 W/m 13,9 C 21,5 C 1,6 km/h (1 Bft) 100,00 %
01.10.2016 15:36 21,4 C 61 % 1009,5 hPa 0,0 l/m 0,6 km/h (0 Bft) NW 315 0 min 0,000 mm 1,0 UV-I 233 W/m 13,6 C 21,4 C 3,2 km/h (1 Bft) 100,00 %
01.10.2016 15:38 21,4 C 61 % 1009,5 hPa 0,0 l/m 0,2 km/h (0 Bft) NW 315 0 min 0,000 mm 1,0 UV-I 232 W/m 13,6 C 21,4 C 1,6 km/h (1 Bft) 98,11 %
01.10.2016 15:40 21,4 C 63 % 1009,4 hPa 0,0 l/m 1,6 km/h (1 Bft) NW 319 0 min 0,000 mm 1,0 UV-I 236 W/m 14,1 C 21,4 C 4,8 km/h (1 Bft) 100,00 %
01.10.2016 15:42 21,5 C 61 % 1009,4 hPa 0,0 l/m 2,8 km/h (1 Bft) N 360 2 min 0,000 mm 1,0 UV-I 261 W/m 13,7 C 21,5 C 4,8 km/h (1 Bft) 100,00 %
01.10.2016 15:44 21,6 C 60 % 1009,4 hPa 0,0 l/m 1,1 km/h (1 Bft) N 360 2 min 0,000 mm 1,0 UV-I 275 W/m 13,5 C 21,6 C 4,8 km/h (1 Bft) 100,00 %
01.10.2016 15:46 21,6 C 61 % 1009,4 hPa 0,0 l/m 3,5 km/h (1 Bft) N 5 2 min 0,000 mm 1,0 UV-I 305 W/m 13,7 C 21,6 C 4,8 km/h (1 Bft) 98,00 %
01.10.2016 15:48 21,6 C 60 % 1009,5 hPa 0,0 l/m 1,5 km/h (1 Bft) N 5 2 min 0,000 mm 1,1 UV-I 322 W/m 13,5 C 21,6 C 4,8 km/h (1 Bft) 100,00 %
01.10.2016 15:50 21,6 C 59 % 1009,4 hPa 0,0 l/m 1,1 km/h (1 Bft) N 5 2 min 0,000 mm 1,0 UV-I 290 W/m 13,2 C 21,6 C 3,2 km/h (1 Bft) 100,00 %
01.10.2016 15:52 21,6 C 59 % 1009,4 hPa 0,0 l/m 1,1 km/h (1 Bft) N 5 2 min 0,000 mm 1,0 UV-I 268 W/m 13,2 C 21,6 C 4,8 km/h (1 Bft) 100,00 %
01.10.2016 15:54 21,6 C 61 % 1009,4 hPa 0,0 l/m 1,0 km/h (0 Bft) N 5 0 min 0,000 mm 0,9 UV-I 231 W/m 13,7 C 21,6 C 3,2 km/h (1 Bft) 100,00 %
01.10.2016 15:56 21,6 C 59 % 1009,4 hPa 0,0 l/m 2,3 km/h (1 Bft) N 5 2 min 0,000 mm 0,9 UV-I 295 W/m 13,2 C 21,6 C 4,8 km/h (1 Bft) 98,00 %
01.10.2016 15:58 21,7 C 59 % 1009,4 hPa 0,0 l/m 1,2 km/h (1 Bft) N 5 2 min 0,000 mm 1,0 UV-I 370 W/m 13,3 C 21,7 C 3,2 km/h (1 Bft) 100,00 %
01.10.2016 16:00 21,6 C 59 % 1009,3 hPa 0,0 l/m 1,1 km/h (1 Bft) N 5 2 min 0,178 mm 1,0 UV-I 359 W/m 13,2 C 21,6 C 3,2 km/h (1 Bft) 97,87 %
01.10.2016 16:02 21,7 C 60 % 1009,3 hPa 0,0 l/m 0,2 km/h (0 Bft) N 5 2 min 0,000 mm 1,0 UV-I 339 W/m 13,6 C 21,7 C 1,6 km/h (1 Bft) 100,00 %
01.10.2016 16:04 21,8 C 60 % 1009,2 hPa 0,0 l/m 1,5 km/h (1 Bft) N 5 2 min 0,000 mm 1,0 UV-I 358 W/m 13,7 C 21,8 C 3,2 km/h (1 Bft) 97,87 %
01.10.2016 16:06 21,8 C 58 % 1009,2 hPa 0,0 l/m 1,2 km/h (1 Bft) N 5 2 min 0,000 mm 1,0 UV-I 339 W/m 13,2 C 21,8 C 3,2 km/h (1 Bft) 100,00 %
01.10.2016 16:08 21,9 C 57 % 1009,3 hPa 0,0 l/m 2,3 km/h (1 Bft) N 5 2 min 0,000 mm 1,0 UV-I 352 W/m 13,0 C 21,9 C 3,2 km/h (1 Bft) 97,56 %
01.10.2016 16:10 21,9 C 58 % 1009,2 hPa 0,0 l/m 2,6 km/h (1 Bft) N 9 2 min 0,000 mm 1,0 UV-I 316 W/m 13,3 C 21,9 C 4,8 km/h (1 Bft) 100,00 %
01.10.2016 16:12 21,9 C 58 % 1009,2 hPa 0,0 l/m 2,2 km/h (1 Bft) N 9 2 min 0,000 mm 0,9 UV-I 267 W/m 13,3 C 21,9 C 3,2 km/h (1 Bft) 97,56 %
01.10.2016 16:14 21,8 C 58 % 1009,2 hPa 0,0 l/m 0,6 km/h (0 Bft) N 9 2 min 0,000 mm 0,8 UV-I 240 W/m 13,2 C 21,8 C 1,6 km/h (1 Bft) 100,00 %
01.10.2016 16:16 21,8 C 59 % 1009,2 hPa 0,0 l/m 1,4 km/h (1 Bft) N 9 2 min 0,000 mm 0,8 UV-I 214 W/m 13,4 C 21,8 C 3,2 km/h (1 Bft) 100,00 %
01.10.2016 16:18 21,8 C 58 % 1009,2 hPa 0,0 l/m 2,9 km/h (1 Bft) N 9 2 min 0,000 mm 0,7 UV-I 206 W/m 13,2 C 21,8 C 4,8 km/h (1 Bft) 100,00 %
01.10.2016 16:20 21,8 C 57 % 1009,3 hPa 0,0 l/m 0,6 km/h (0 Bft) N 9 0 min 0,000 mm 0,7 UV-I 199 W/m 12,9 C 21,8 C 1,6 km/h (1 Bft) 100,00 %
01.10.2016 16:22 21,8 C 57 % 1009,2 hPa 0,0 l/m 0,4 km/h (0 Bft) N 9 0 min 0,000 mm 0,7 UV-I 185 W/m 12,9 C 21,8 C 1,6 km/h (1 Bft) 100,00 %
01.10.2016 16:24 21,8 C 58 % 1009,2 hPa 0,0 l/m 2,1 km/h (1 Bft) N 9 0 min 0,000 mm 0,6 UV-I 186 W/m 13,2 C 21,8 C 3,2 km/h (1 Bft) 100,00 %
01.10.2016 16:26 21,8 C 57 % 1009,1 hPa 0,0 l/m 1,5 km/h (1 Bft) N 9 0 min 0,000 mm 0,6 UV-I 186 W/m 12,9 C 21,8 C 3,2 km/h (1 Bft) 97,87 %
01.10.2016 16:28 21,7 C 58 % 1009,1 hPa 0,0 l/m 1,4 km/h (1 Bft) N 9 0 min 0,000 mm 0,6 UV-I 181 W/m 13,1 C 21,7 C 3,2 km/h (1 Bft) 98,00 %
01.10.2016 16:30 21,6 C 60 % 1009,1 hPa 0,0 l/m 1,8 km/h (1 Bft) N 9 0 min 0,000 mm 0,6 UV-I 178 W/m 13,5 C 21,6 C 3,2 km/h (1 Bft) 97,87 %
01.10.2016 16:32 21,6 C 60 % 1009,1 hPa 0,0 l/m 2,0 km/h (1 Bft) N 9 0 min 0,000 mm 0,6 UV-I 176 W/m 13,5 C 21,6 C 3,2 km/h (1 Bft) 95,83 %
01.10.2016 16:34 21,6 C 60 % 1009,1 hPa 0,0 l/m 2,0 km/h (1 Bft) N 9 0 min 0,000 mm 0,5 UV-I 178 W/m 13,5 C 21,6 C 3,2 km/h (1 Bft) 97,87 %
01.10.2016 16:36 21,6 C 58 % 1009,1 hPa 0,0 l/m 1,6 km/h (1 Bft) N 9 0 min 0,000 mm 0,5 UV-I 177 W/m 13,0 C 21,6 C 3,2 km/h (1 Bft) 97,37 %
01.10.2016 16:38 21,6 C 59 % 1009,1 hPa 0,0 l/m 0,7 km/h (0 Bft) N 9 0 min 0,000 mm 0,5 UV-I 174 W/m 13,2 C 21,6 C 1,6 km/h (1 Bft) 98,08 %
01.10.2016 16:40 21,6 C 58 % 1009,1 hPa 0,0 l/m 1,1 km/h (1 Bft) N 9 0 min 0,000 mm 0,5 UV-I 164 W/m 13,0 C 21,6 C 1,6 km/h (1 Bft) 98,00 %
01.10.2016 16:42 21,6 C 60 % 1009,1 hPa 0,0 l/m 1,5 km/h (1 Bft) N 9 0 min 0,000 mm 0,5 UV-I 163 W/m 13,5 C 21,6 C 3,2 km/h (1 Bft) 93,62 %
01.10.2016 16:44 21,6 C 60 % 1009,1 hPa 0,0 l/m 1,7 km/h (1 Bft) N 9 0 min 0,000 mm 0,5 UV-I 157 W/m 13,5 C 21,6 C 3,2 km/h (1 Bft) 97,87 %
01.10.2016 16:46 21,6 C 59 % 1009,1 hPa 0,0 l/m 1,2 km/h (1 Bft) N 9 0 min 0,000 mm 0,0 UV-I 157 W/m 13,2 C 21,6 C 1,6 km/h (1 Bft) 97,87 %
01.10.2016 16:48 21,5 C 59 % 1009,1 hPa 0,0 l/m 0,3 km/h (0 Bft) N 9 0 min 0,000 mm 0,0 UV-I 161 W/m 13,1 C 21,5 C 1,6 km/h (1 Bft) 97,50 %
01.10.2016 16:50 21,5 C 59 % 1009,1 hPa 0,0 l/m 0,1 km/h (0 Bft) N 9 0 min 0,000 mm 0,0 UV-I 162 W/m 13,1 C 21,5 C 1,6 km/h (1 Bft) 95,74 %
01.10.2016 16:52 21,5 C 60 % 1009,1 hPa 0,0 l/m 0,0 km/h (0 Bft) N 9 2 min 0,000 mm 0,0 UV-I 171 W/m 13,4 C 21,5 C 0,0 km/h (0 Bft) 96,00 %
01.10.2016 16:54 21,6 C 60 % 1009,1 hPa 0,0 l/m 0,1 km/h (0 Bft) N 9 2 min 0,000 mm 0,0 UV-I 196 W/m 13,5 C 21,6 C 1,6 km/h (1 Bft) 98,00 %
01.10.2016 16:56 21,6 C 62 % 1009,1 hPa 0,0 l/m 0,1 km/h (0 Bft) N 9 2 min 0,000 mm 0,0 UV-I 212 W/m 14,0 C 21,6 C 1,6 km/h (1 Bft) 97,37 %
01.10.2016 16:58 21,7 C 59 % 1009,1 hPa 0,0 l/m 0,3 km/h (0 Bft) N 9 2 min 0,000 mm 0,0 UV-I 263 W/m 13,3 C 21,7 C 1,6 km/h (1 Bft) 98,11 %
01.10.2016 17:00 21,7 C 63 % 1009,0 hPa 0,0 l/m 0,5 km/h (0 Bft) N 9 2 min 0,153 mm 0,0 UV-I 305 W/m 14,3 C 21,7 C 1,6 km/h (1 Bft) 100,00 %
01.10.2016 17:02 21,8 C 60 % 1009,0 hPa 0,0 l/m 1,7 km/h (1 Bft) N 10 2 min 0,000 mm 0,0 UV-I 319 W/m 13,7 C 21,8 C 3,2 km/h (1 Bft) 100,00 %
01.10.2016 17:04 21,9 C 59 % 1009,1 hPa 0,0 l/m 1,3 km/h (1 Bft) N 10 2 min 0,000 mm 0,0 UV-I 281 W/m 13,5 C 21,9 C 3,2 km/h (1 Bft) 97,56 %
01.10.2016 17:06 21,9 C 60 % 1009,0 hPa 0,0 l/m 1,9 km/h (1 Bft) N 10 2 min 0,000 mm 0,0 UV-I 233 W/m 13,8 C 21,9 C 3,2 km/h (1 Bft) 100,00 %
01.10.2016 17:08 21,9 C 61 % 1009,0 hPa 0,0 l/m 2,6 km/h (1 Bft) N 11 2 min 0,000 mm 0,0 UV-I 228 W/m 14,0 C 21,9 C 4,8 km/h (1 Bft) 97,62 %
01.10.2016 17:10 21,9 C 61 % 1009,0 hPa 0,0 l/m 3,4 km/h (1 Bft) N-NO 12 2 min 0,000 mm 0,0 UV-I 235 W/m 14,0 C 21,9 C 4,8 km/h (1 Bft) 100,00 %
01.10.2016 17:12 21,9 C 62 % 1009,0 hPa 0,0 l/m 2,7 km/h (1 Bft) N-NO 12 2 min 0,000 mm 0,0 UV-I 257 W/m 14,3 C 21,9 C 4,8 km/h (1 Bft) 97,14 %
01.10.2016 17:14 21,9 C 61 % 1009,0 hPa 0,0 l/m 2,3 km/h (1 Bft) N-NO 12 2 min 0,000 mm 0,0 UV-I 251 W/m 14,0 C 21,9 C 3,2 km/h (1 Bft) 100,00 %
01.10.2016 17:16 21,9 C 62 % 1009,0 hPa 0,0 l/m 1,6 km/h (1 Bft) N-NO 12 2 min 0,000 mm 0,0 UV-I 225 W/m 14,3 C 21,9 C 3,2 km/h (1 Bft) 100,00 %
01.10.2016 17:18 21,9 C 62 % 1009,0 hPa 0,0 l/m 1,9 km/h (1 Bft) N-NO 12 2 min 0,000 mm 0,0 UV-I 221 W/m 14,3 C 21,9 C 3,2 km/h (1 Bft) 100,00 %
01.10.2016 17:20 21,9 C 62 % 1009,0 hPa 0,0 l/m 1,8 km/h (1 Bft) N-NO 12 2 min 0,000 mm 0,0 UV-I 211 W/m 14,3 C 21,9 C 3,2 km/h (1 Bft) 98,11 %
01.10.2016 17:22 22,0 C 61 % 1009,0 hPa 0,0 l/m 2,8 km/h (1 Bft) N-NO 15 2 min 0,000 mm 0,0 UV-I 203 W/m 14,1 C 22,0 C 4,8 km/h (1 Bft) 100,00 %
01.10.2016 17:24 21,9 C 61 % 1009,0 hPa 0,0 l/m 3,7 km/h (1 Bft) O 89 2 min 0,000 mm 0,0 UV-I 177 W/m 14,0 C 21,9 C 6,4 km/h (2 Bft) 100,00 %
01.10.2016 17:26 21,8 C 61 % 1009,0 hPa 0,0 l/m 3,3 km/h (1 Bft) O 90 2 min 0,000 mm 0,0 UV-I 146 W/m 13,9 C 21,8 C 4,8 km/h (1 Bft) 100,00 %
01.10.2016 17:28 21,8 C 61 % 1009,0 hPa 0,0 l/m 3,8 km/h (1 Bft) O 88 2 min 0,000 mm 0,0 UV-I 122 W/m 13,9 C 21,8 C 6,4 km/h (2 Bft) 100,00 %
01.10.2016 17:30 21,7 C 63 % 1009,0 hPa 0,0 l/m 2,3 km/h (1 Bft) O 88 0 min 0,000 mm 0,0 UV-I 105 W/m 14,3 C 21,7 C 4,8 km/h (1 Bft) 97,87 %
01.10.2016 17:32 21,6 C 64 % 1009,0 hPa 0,0 l/m 2,7 km/h (1 Bft) O 88 2 min 0,000 mm 0,0 UV-I 106 W/m 14,5 C 21,6 C 4,8 km/h (1 Bft) 97,87 %
01.10.2016 17:34 21,5 C 63 % 1009,0 hPa 0,0 l/m 2,9 km/h (1 Bft) O 88 2 min 0,000 mm 0,0 UV-I 102 W/m 14,2 C 21,5 C 4,8 km/h (1 Bft) 100,00 %
01.10.2016 17:36 21,4 C 65 % 1009,0 hPa 0,0 l/m 2,9 km/h (1 Bft) O 88 2 min 0,000 mm 0,0 UV-I 99 W/m 14,5 C 21,4 C 4,8 km/h (1 Bft) 100,00 %
01.10.2016 17:38 21,4 C 64 % 1009,0 hPa 0,0 l/m 3,5 km/h (1 Bft) O 88 2 min 0,000 mm 0,0 UV-I 102 W/m 14,3 C 21,4 C 4,8 km/h (1 Bft) 97,37 %
01.10.2016 17:40 21,3 C 65 % 1008,9 hPa 0,0 l/m 2,8 km/h (1 Bft) O 88 2 min 0,000 mm 0,0 UV-I 93 W/m 14,4 C 21,3 C 4,8 km/h (1 Bft) 100,00 %
01.10.2016 17:42 21,2 C 65 % 1008,9 hPa 0,0 l/m 4,3 km/h (1 Bft) O 88 2 min 0,000 mm 0,0 UV-I 87 W/m 14,4 C 21,2 C 6,4 km/h (2 Bft) 100,00 %
01.10.2016 17:44 21,1 C 65 % 1008,9 hPa 0,0 l/m 3,0 km/h (1 Bft) O 88 2 min 0,000 mm 0,0 UV-I 84 W/m 14,3 C 21,1 C 4,8 km/h (1 Bft) 100,00 %
01.10.2016 17:46 21,1 C 67 % 1008,9 hPa 0,0 l/m 2,2 km/h (1 Bft) O 88 2 min 0,000 mm 0,0 UV-I 84 W/m 14,7 C 21,1 C 3,2 km/h (1 Bft) 95,74 %
01.10.2016 17:48 21,1 C 67 % 1008,9 hPa 0,0 l/m 1,5 km/h (1 Bft) O 88 0 min 0,000 mm 0,0 UV-I 67 W/m 14,7 C 21,1 C 3,2 km/h (1 Bft) 98,11 %
01.10.2016 17:50 21,0 C 67 % 1008,9 hPa 0,0 l/m 2,5 km/h (1 Bft) O 88 0 min 0,000 mm 0,0 UV-I 58 W/m 14,6 C 21,0 C 4,8 km/h (1 Bft) 95,92 %
01.10.2016 17:52 20,9 C 68 % 1008,9 hPa 0,0 l/m 3,4 km/h (1 Bft) O 88 0 min 0,000 mm 0,0 UV-I 51 W/m 14,8 C 20,9 C 4,8 km/h (1 Bft) 100,00 %
01.10.2016 17:54 20,7 C 69 % 1008,9 hPa 0,0 l/m 3,6 km/h (1 Bft) O 88 0 min 0,000 mm 0,0 UV-I 50 W/m 14,8 C 20,7 C 4,8 km/h (1 Bft) 100,00 %
01.10.2016 17:56 20,6 C 70 % 1008,9 hPa 0,0 l/m 3,5 km/h (1 Bft) O 88 0 min 0,000 mm 0,0 UV-I 47 W/m 14,9 C 20,6 C 4,8 km/h (1 Bft) 97,87 %
01.10.2016 17:58 20,4 C 70 % 1008,9 hPa 0,0 l/m 4,0 km/h (1 Bft) O 88 0 min 0,000 mm 0,0 UV-I 46 W/m 14,7 C 20,4 C 4,8 km/h (1 Bft) 100,00 %
01.10.2016 18:00 20,2 C 72 % 1008,9 hPa 0,0 l/m 3,3 km/h (1 Bft) O 88 0 min 0,000 mm 0,0 UV-I 47 W/m 15,0 C 20,2 C 4,8 km/h (1 Bft) 100,00 %
01.10.2016 18:02 20,1 C 73 % 1008,9 hPa 0,0 l/m 2,5 km/h (1 Bft) O 88 0 min 0,101 mm 0,0 UV-I 51 W/m 15,1 C 20,1 C 3,2 km/h (1 Bft) 100,00 %
01.10.2016 18:04 19,9 C 74 % 1008,9 hPa 0,0 l/m 1,4 km/h (1 Bft) O 88 0 min 0,000 mm 0,0 UV-I 48 W/m 15,1 C 19,9 C 3,2 km/h (1 Bft) 100,00 %
01.10.2016 18:06 19,8 C 74 % 1008,9 hPa 0,0 l/m 1,1 km/h (1 Bft) O 88 0 min 0,000 mm 0,0 UV-I 43 W/m 15,0 C 19,8 C 3,2 km/h (1 Bft) 100,00 %
01.10.2016 18:08 19,7 C 73 % 1008,9 hPa 0,0 l/m 0,0 km/h (0 Bft) O 88 0 min 0,000 mm 0,0 UV-I 40 W/m 14,7 C 19,7 C 0,0 km/h (0 Bft) 100,00 %
01.10.2016 18:10 19,7 C 74 % 1008,9 hPa 0,0 l/m 0,0 km/h (0 Bft) O 88 0 min 0,000 mm 0,0 UV-I 37 W/m 14,9 C 19,7 C 0,0 km/h (0 Bft) 100,00 %
01.10.2016 18:12 19,6 C 75 % 1008,9 hPa 0,0 l/m 0,0 km/h (0 Bft) O 88 0 min 0,000 mm 0,0 UV-I 33 W/m 15,0 C 19,6 C 0,0 km/h (0 Bft) 100,00 %
01.10.2016 18:14 19,4 C 75 % 1008,9 hPa 0,0 l/m 0,0 km/h (0 Bft) O 88 0 min 0,000 mm 0,0 UV-I 29 W/m 14,8 C 19,4 C 0,0 km/h (0 Bft) 100,00 %
01.10.2016 18:16 19,3 C 75 % 1008,9 hPa 0,0 l/m 0,3 km/h (0 Bft) O 88 0 min 0,000 mm 0,0 UV-I 26 W/m 14,8 C 19,3 C 1,6 km/h (1 Bft) 100,00 %
01.10.2016 18:18 19,2 C 76 % 1009,0 hPa 0,0 l/m 0,1 km/h (0 Bft) O 88 0 min 0,000 mm 0,0 UV-I 24 W/m 14,9 C 19,2 C 1,6 km/h (1 Bft) 100,00 %
01.10.2016 18:20 19,0 C 76 % 1009,0 hPa 0,0 l/m 1,5 km/h (1 Bft) O 88 0 min 0,000 mm 0,0 UV-I 21 W/m 14,7 C 19,0 C 3,2 km/h (1 Bft) 100,00 %
01.10.2016 18:22 18,8 C 76 % 1009,0 hPa 0,0 l/m 1,9 km/h (1 Bft) O 88 0 min 0,000 mm 0,0 UV-I 20 W/m 14,5 C 18,8 C 3,2 km/h (1 Bft) 100,00 %
01.10.2016 18:24 18,7 C 76 % 1008,9 hPa 0,0 l/m 1,1 km/h (1 Bft) O 88 0 min 0,000 mm 0,0 UV-I 18 W/m 14,4 C 18,7 C 1,6 km/h (1 Bft) 100,00 %
01.10.2016 18:26 18,7 C 77 % 1008,9 hPa 0,0 l/m 0,1 km/h (0 Bft) O 88 0 min 0,000 mm 0,0 UV-I 16 W/m 14,6 C 18,7 C 1,6 km/h (1 Bft) 97,87 %
01.10.2016 18:28 18,5 C 77 % 1008,9 hPa 0,0 l/m 0,0 km/h (0 Bft) O 88 0 min 0,000 mm 0,0 UV-I 13 W/m 14,4 C 18,5 C 0,0 km/h (0 Bft) 91,49 %
01.10.2016 18:30 18,4 C 78 % 1008,9 hPa 0,0 l/m 0,0 km/h (0 Bft) O 88 2 min 0,000 mm 0,0 UV-I 12 W/m 14,5 C 18,4 C 0,0 km/h (0 Bft) 97,92 %
01.10.2016 18:32 18,3 C 78 % 1009,0 hPa 0,0 l/m 0,0 km/h (0 Bft) O 88 2 min 0,000 mm 0,0 UV-I 11 W/m 14,4 C 18,3 C 0,0 km/h (0 Bft) 95,74 %
01.10.2016 18:34 18,2 C 79 % 1009,0 hPa 0,0 l/m 0,0 km/h (0 Bft) O 88 0 min 0,000 mm 0,0 UV-I 8 W/m 14,5 C 18,2 C 0,0 km/h (0 Bft) 97,14 %
01.10.2016 18:36 18,1 C 79 % 1008,9 hPa 0,0 l/m 0,0 km/h (0 Bft) O 88 0 min 0,000 mm 0,0 UV-I 7 W/m 14,4 C 18,1 C 0,0 km/h (0 Bft) 98,21 %
01.10.2016 18:38 17,9 C 79 % 1009,0 hPa 0,0 l/m 0,0 km/h (0 Bft) O 88 0 min 0,000 mm 0,0 UV-I 5 W/m 14,2 C 17,9 C 0,0 km/h (0 Bft) 95,74 %
01.10.2016 18:40 17,8 C 79 % 1009,1 hPa 0,0 l/m 0,0 km/h (0 Bft) O 88 0 min 0,000 mm 0,0 UV-I 3 W/m 14,1 C 17,8 C 0,0 km/h (0 Bft) 97,87 %
01.10.2016 18:42 17,7 C 80 % 1009,1 hPa 0,0 l/m 0,0 km/h (0 Bft) O 88 0 min 0,000 mm 0,0 UV-I 0 W/m 14,2 C 17,7 C 0,0 km/h (0 Bft) 97,87 %
01.10.2016 18:44 17,6 C 80 % 1009,1 hPa 0,0 l/m 0,0 km/h (0 Bft) O 88 0 min 0,000 mm 0,0 UV-I 0 W/m 14,1 C 17,6 C 0,0 km/h (0 Bft) 92,00 %
01.10.2016 18:46 17,3 C 81 % 1009,1 hPa 0,0 l/m 0,0 km/h (0 Bft) O 88 0 min 0,000 mm 0,0 UV-I 0 W/m 14,0 C 17,3 C 0,0 km/h (0 Bft) 97,73 %
01.10.2016 18:48 17,2 C 82 % 1009,1 hPa 0,0 l/m 0,0 km/h (0 Bft) O 88 0 min 0,000 mm 0,0 UV-I 0 W/m 14,1 C 17,2 C 0,0 km/h (0 Bft) 94,00 %
01.10.2016 18:50 17,2 C 82 % 1009,1 hPa 0,0 l/m 0,0 km/h (0 Bft) O 88 0 min 0,000 mm 0,0 UV-I 0 W/m 14,1 C 17,2 C 0,0 km/h (0 Bft) 97,37 %
01.10.2016 18:52 17,1 C 82 % 1009,2 hPa 0,0 l/m 0,0 km/h (0 Bft) O 88 0 min 0,000 mm 0,0 UV-I 0 W/m 14,0 C 17,1 C 0,0 km/h (0 Bft) 95,74 %
01.10.2016 18:54 17,1 C 82 % 1009,2 hPa 0,0 l/m 0,0 km/h (0 Bft) O 88 0 min 0,000 mm 0,0 UV-I 0 W/m 14,0 C 17,1 C 0,0 km/h (0 Bft) 96,00 %
01.10.2016 18:56 17,1 C 82 % 1009,3 hPa 0,0 l/m 0,0 km/h (0 Bft) O 88 0 min 0,000 mm 0,0 UV-I 0 W/m 14,0 C 17,1 C 0,0 km/h (0 Bft) 98,00 %
01.10.2016 18:58 17,0 C 82 % 1009,3 hPa 0,0 l/m 0,0 km/h (0 Bft) O 88 0 min 0,000 mm 0,0 UV-I 0 W/m 13,9 C 17,0 C 0,0 km/h (0 Bft) 98,00 %
01.10.2016 19:00 16,9 C 82 % 1009,3 hPa 0,0 l/m 0,0 km/h (0 Bft) O 88 0 min 0,026 mm 0,0 UV-I 0 W/m 13,8 C 16,9 C 0,0 km/h (0 Bft) 100,00 %
01.10.2016 19:02 16,7 C 83 % 1009,3 hPa 0,0 l/m 0,0 km/h (0 Bft) O 88 0 min 0,000 mm 0,0 UV-I 0 W/m 13,8 C 16,7 C 0,0 km/h (0 Bft) 100,00 %
01.10.2016 19:04 16,6 C 83 % 1009,2 hPa 0,0 l/m 0,0 km/h (0 Bft) O 88 0 min 0,000 mm 0,0 UV-I 0 W/m 13,7 C 16,6 C 0,0 km/h (0 Bft) 94,00 %
01.10.2016 19:06 16,4 C 83 % 1009,3 hPa 0,0 l/m 0,0 km/h (0 Bft) O 88 0 min 0,000 mm 0,0 UV-I 0 W/m 13,5 C 16,4 C 0,0 km/h (0 Bft) 100,00 %
01.10.2016 19:08 16,4 C 84 % 1009,3 hPa 0,0 l/m 0,0 km/h (0 Bft) O 88 0 min 0,000 mm 0,0 UV-I 0 W/m 13,7 C 16,4 C 0,0 km/h (0 Bft) 100,00 %
01.10.2016 19:10 16,3 C 84 % 1009,3 hPa 0,0 l/m 0,0 km/h (0 Bft) O 88 0 min 0,000 mm 0,0 UV-I 0 W/m 13,6 C 16,3 C 0,0 km/h (0 Bft) 100,00 %
01.10.2016 19:12 16,3 C 84 % 1009,3 hPa 0,0 l/m 0,0 km/h (0 Bft) O 88 0 min 0,000 mm 0,0 UV-I 0 W/m 13,6 C 16,3 C 0,0 km/h (0 Bft) 100,00 %
01.10.2016 19:14 16,1 C 84 % 1009,2 hPa 0,0 l/m 0,0 km/h (0 Bft) O 88 0 min 0,000 mm 0,0 UV-I 0 W/m 13,4 C 16,1 C 0,0 km/h (0 Bft) 100,00 %
01.10.2016 19:16 16,1 C 85 % 1009,1 hPa 0,0 l/m 0,0 km/h (0 Bft) O 88 0 min 0,000 mm 0,0 UV-I 0 W/m 13,6 C 16,1 C 0,0 km/h (0 Bft) 97,87 %
01.10.2016 19:18 16,1 C 85 % 1009,2 hPa 0,0 l/m 0,0 km/h (0 Bft) O 88 0 min 0,000 mm 0,0 UV-I 0 W/m 13,6 C 16,1 C 0,0 km/h (0 Bft) 100,00 %
01.10.2016 19:20 16,0 C 85 % 1009,2 hPa 0,0 l/m 0,0 km/h (0 Bft) O 88 0 min 0,000 mm 0,0 UV-I 0 W/m 13,5 C 16,0 C 0,0 km/h (0 Bft) 100,00 %
01.10.2016 19:22 15,9 C 85 % 1009,2 hPa 0,0 l/m 0,0 km/h (0 Bft) O 88 0 min 0,000 mm 0,0 UV-I 0 W/m 13,4 C 15,9 C 0,0 km/h (0 Bft) 100,00 %
01.10.2016 19:24 15,9 C 85 % 1009,2 hPa 0,0 l/m 0,0 km/h (0 Bft) O 88 0 min 0,000 mm 0,0 UV-I 0 W/m 13,4 C 15,9 C 0,0 km/h (0 Bft) 100,00 %
01.10.2016 19:26 15,8 C 85 % 1009,3 hPa 0,0 l/m 0,0 km/h (0 Bft) O 88 0 min 0,000 mm 0,0 UV-I 0 W/m 13,3 C 15,8 C 0,0 km/h (0 Bft) 100,00 %
01.10.2016 19:28 15,8 C 86 % 1009,2 hPa 0,0 l/m 0,0 km/h (0 Bft) O 88 0 min 0,000 mm 0,0 UV-I 0 W/m 13,5 C 15,8 C 0,0 km/h (0 Bft) 100,00 %
01.10.2016 19:30 15,8 C 86 % 1009,2 hPa 0,0 l/m 0,0 km/h (0 Bft) O 88 0 min 0,000 mm 0,0 UV-I 0 W/m 13,5 C 15,8 C 0,0 km/h (0 Bft) 100,00 %
01.10.2016 19:32 15,8 C 86 % 1009,2 hPa 0,0 l/m 0,3 km/h (0 Bft) O 88 0 min 0,000 mm 0,0 UV-I 0 W/m 13,5 C 15,8 C 1,6 km/h (1 Bft) 100,00 %
01.10.2016 19:34 15,8 C 86 % 1009,2 hPa 0,0 l/m 0,9 km/h (0 Bft) O 88 0 min 0,000 mm 0,0 UV-I 0 W/m 13,5 C 15,8 C 1,6 km/h (1 Bft) 100,00 %
01.10.2016 19:36 15,7 C 86 % 1009,3 hPa 0,0 l/m 0,0 km/h (0 Bft) O 88 0 min 0,000 mm 0,0 UV-I 0 W/m 13,4 C 15,7 C 0,0 km/h (0 Bft) 97,37 %
01.10.2016 19:38 15,7 C 86 % 1009,3 hPa 0,0 l/m 0,0 km/h (0 Bft) O 88 0 min 0,000 mm 0,0 UV-I 0 W/m 13,4 C 15,7 C 1,6 km/h (1 Bft) 100,00 %
01.10.2016 19:40 15,7 C 86 % 1009,3 hPa 0,0 l/m 0,0 km/h (0 Bft) O 88 0 min 0,000 mm 0,0 UV-I 0 W/m 13,4 C 15,7 C 0,0 km/h (0 Bft) 97,87 %
01.10.2016 19:42 15,7 C 86 % 1009,3 hPa 0,0 l/m 0,0 km/h (0 Bft) O 88 0 min 0,000 mm 0,0 UV-I 0 W/m 13,4 C 15,7 C 0,0 km/h (0 Bft) 100,00 %
01.10.2016 19:44 15,7 C 86 % 1009,3 hPa 0,0 l/m 0,4 km/h (0 Bft) O 88 0 min 0,000 mm 0,0 UV-I 0 W/m 13,4 C 15,7 C 1,6 km/h (1 Bft) 100,00 %
01.10.2016 19:46 15,7 C 86 % 1009,3 hPa 0,0 l/m 1,3 km/h (1 Bft) O 88 0 min 0,000 mm 0,0 UV-I 0 W/m 13,4 C 15,7 C 3,2 km/h (1 Bft) 100,00 %
01.10.2016 19:48 15,7 C 86 % 1009,3 hPa 0,0 l/m 0,8 km/h (0 Bft) O 88 0 min 0,000 mm 0,0 UV-I 0 W/m 13,4 C 15,7 C 1,6 km/h (1 Bft) 98,11 %
01.10.2016 19:50 15,7 C 87 % 1009,4 hPa 0,0 l/m 0,0 km/h (0 Bft) O 88 0 min 0,000 mm 0,0 UV-I 0 W/m 13,5 C 15,7 C 0,0 km/h (0 Bft) 100,00 %
01.10.2016 19:52 15,6 C 87 % 1009,4 hPa 0,0 l/m 0,0 km/h (0 Bft) O 88 0 min 0,000 mm 0,0 UV-I 0 W/m 13,4 C 15,6 C 0,0 km/h (0 Bft) 100,00 %
01.10.2016 19:54 15,5 C 86 % 1009,4 hPa 0,0 l/m 0,5 km/h (0 Bft) O 88 0 min 0,000 mm 0,0 UV-I 0 W/m 13,2 C 15,5 C 1,6 km/h (1 Bft) 100,00 %
01.10.2016 19:56 15,4 C 87 % 1009,5 hPa 0,0 l/m 1,0 km/h (0 Bft) O 88 0 min 0,000 mm 0,0 UV-I 0 W/m 13,2 C 15,4 C 1,6 km/h (1 Bft) 100,00 %
01.10.2016 19:58 15,3 C 87 % 1009,5 hPa 0,0 l/m 0,4 km/h (0 Bft) O 88 0 min 0,000 mm 0,0 UV-I 0 W/m 13,1 C 15,3 C 1,6 km/h (1 Bft) 100,00 %
01.10.2016 20:00 15,3 C 88 % 1009,4 hPa 0,0 l/m 2,5 km/h (1 Bft) O 88 0 min 0,000 mm 0,0 UV-I 0 W/m 13,3 C 15,3 C 3,2 km/h (1 Bft) 100,00 %
01.10.2016 20:02 15,4 C 88 % 1009,4 hPa 0,0 l/m 3,3 km/h (1 Bft) O 88 0 min 0,000 mm 0,0 UV-I 0 W/m 13,4 C 15,4 C 4,8 km/h (1 Bft) 98,11 %
01.10.2016 20:04 15,4 C 88 % 1009,4 hPa 0,0 l/m 4,4 km/h (1 Bft) O 88 0 min 0,000 mm 0,0 UV-I 0 W/m 13,4 C 15,4 C 6,4 km/h (2 Bft) 100,00 %
01.10.2016 20:06 15,4 C 87 % 1009,5 hPa 0,0 l/m 3,4 km/h (1 Bft) O 88 0 min 0,000 mm 0,0 UV-I 0 W/m 13,2 C 15,4 C 4,8 km/h (1 Bft) 100,00 %
01.10.2016 20:08 15,4 C 88 % 1009,5 hPa 0,0 l/m 2,3 km/h (1 Bft) O 88 0 min 0,000 mm 0,0 UV-I 0 W/m 13,4 C 15,4 C 3,2 km/h (1 Bft) 100,00 %
01.10.2016 20:10 15,4 C 87 % 1009,5 hPa 0,0 l/m 0,4 km/h (0 Bft) O 88 0 min 0,000 mm 0,0 UV-I 0 W/m 13,2 C 15,4 C 1,6 km/h (1 Bft) 100,00 %
01.10.2016 20:12 15,4 C 87 % 1009,5 hPa 0,0 l/m 0,0 km/h (0 Bft) O 88 0 min 0,000 mm 0,0 UV-I 0 W/m 13,2 C 15,4 C 0,0 km/h (0 Bft) 98,00 %
01.10.2016 20:14 15,4 C 88 % 1009,5 hPa 0,0 l/m 0,0 km/h (0 Bft) O 88 0 min 0,000 mm 0,0 UV-I 0 W/m 13,4 C 15,4 C 1,6 km/h (1 Bft) 100,00 %
01.10.2016 20:16 15,3 C 88 % 1009,6 hPa 0,0 l/m 0,9 km/h (0 Bft) O 88 0 min 0,000 mm 0,0 UV-I 0 W/m 13,3 C 15,3 C 3,2 km/h (1 Bft) 100,00 %
01.10.2016 20:18 15,3 C 88 % 1009,6 hPa 0,0 l/m 2,1 km/h (1 Bft) O 88 0 min 0,000 mm 0,0 UV-I 0 W/m 13,3 C 15,3 C 3,2 km/h (1 Bft) 97,87 %
01.10.2016 20:20 15,2 C 88 % 1009,7 hPa 0,0 l/m 2,9 km/h (1 Bft) O 88 0 min 0,000 mm 0,0 UV-I 0 W/m 13,2 C 15,2 C 3,2 km/h (1 Bft) 100,00 %
01.10.2016 20:22 15,1 C 89 % 1009,7 hPa 0,0 l/m 3,1 km/h (1 Bft) O 88 0 min 0,000 mm 0,0 UV-I 0 W/m 13,3 C 15,1 C 3,2 km/h (1 Bft) 100,00 %
01.10.2016 20:24 15,1 C 89 % 1009,7 hPa 0,0 l/m 2,7 km/h (1 Bft) O 88 0 min 0,000 mm 0,0 UV-I 0 W/m 13,3 C 15,1 C 3,2 km/h (1 Bft) 100,00 %
01.10.2016 20:26 15,0 C 90 % 1009,6 hPa 0,0 l/m 1,8 km/h (1 Bft) O 88 0 min 0,000 mm 0,0 UV-I 0 W/m 13,4 C 15,0 C 3,2 km/h (1 Bft) 97,87 %
01.10.2016 20:28 14,9 C 90 % 1009,6 hPa 0,0 l/m 2,5 km/h (1 Bft) O 88 0 min 0,000 mm 0,0 UV-I 0 W/m 13,3 C 14,9 C 3,2 km/h (1 Bft) 100,00 %
01.10.2016 20:30 15,0 C 90 % 1009,6 hPa 0,0 l/m 2,6 km/h (1 Bft) O 88 0 min 0,000 mm 0,0 UV-I 0 W/m 13,4 C 15,0 C 4,8 km/h (1 Bft) 97,96 %
01.10.2016 20:32 15,0 C 90 % 1009,6 hPa 0,0 l/m 1,5 km/h (1 Bft) O 88 0 min 0,000 mm 0,0 UV-I 0 W/m 13,4 C 15,0 C 3,2 km/h (1 Bft) 98,08 %
01.10.2016 20:34 14,9 C 89 % 1009,6 hPa 0,0 l/m 1,1 km/h (1 Bft) O 88 0 min 0,000 mm 0,0 UV-I 0 W/m 13,1 C 14,9 C 3,2 km/h (1 Bft) 94,74 %
01.10.2016 20:36 14,8 C 89 % 1009,7 hPa 0,0 l/m 0,8 km/h (0 Bft) O 88 0 min 0,000 mm 0,0 UV-I 0 W/m 13,0 C 14,8 C 1,6 km/h (1 Bft) 96,23 %
01.10.2016 20:38 14,7 C 90 % 1009,6 hPa 0,0 l/m 0,3 km/h (0 Bft) O 88 0 min 0,000 mm 0,0 UV-I 0 W/m 13,1 C 14,7 C 1,6 km/h (1 Bft) 98,00 %
01.10.2016 20:40 14,6 C 90 % 1009,7 hPa 0,0 l/m 1,0 km/h (0 Bft) O 88 0 min 0,000 mm 0,0 UV-I 0 W/m 13,0 C 14,6 C 3,2 km/h (1 Bft) 97,87 %
01.10.2016 20:42 14,6 C 90 % 1009,7 hPa 0,0 l/m 1,8 km/h (1 Bft) O 88 0 min 0,000 mm 0,0 UV-I 0 W/m 13,0 C 14,6 C 3,2 km/h (1 Bft) 94,29 %
01.10.2016 20:44 14,6 C 90 % 1009,7 hPa 0,0 l/m 2,4 km/h (1 Bft) O 88 0 min 0,000 mm 0,0 UV-I 0 W/m 13,0 C 14,6 C 3,2 km/h (1 Bft) 98,21 %
01.10.2016 20:46 14,6 C 90 % 1009,7 hPa 0,0 l/m 3,4 km/h (1 Bft) O 88 0 min 0,000 mm 0,0 UV-I 0 W/m 13,0 C 14,6 C 4,8 km/h (1 Bft) 95,74 %
01.10.2016 20:48 14,6 C 90 % 1009,7 hPa 0,0 l/m 3,9 km/h (1 Bft) O 88 0 min 0,000 mm 0,0 UV-I 0 W/m 13,0 C 14,6 C 4,8 km/h (1 Bft) 97,56 %
01.10.2016 20:50 14,4 C 89 % 1009,7 hPa 0,0 l/m 3,7 km/h (1 Bft) O 88 0 min 0,000 mm 0,0 UV-I 0 W/m 12,6 C 14,4 C 4,8 km/h (1 Bft) 98,11 %
01.10.2016 20:52 14,4 C 90 % 1009,7 hPa 0,0 l/m 3,7 km/h (1 Bft) O 88 0 min 0,000 mm 0,0 UV-I 0 W/m 12,8 C 14,4 C 4,8 km/h (1 Bft) 97,14 %
01.10.2016 20:54 14,3 C 90 % 1009,7 hPa 0,0 l/m 2,4 km/h (1 Bft) O 89 0 min 0,000 mm 0,0 UV-I 0 W/m 12,7 C 14,3 C 4,8 km/h (1 Bft) 98,00 %
01.10.2016 20:56 14,3 C 91 % 1009,8 hPa 0,0 l/m 1,4 km/h (1 Bft) O 89 0 min 0,000 mm 0,0 UV-I 0 W/m 12,8 C 14,3 C 3,2 km/h (1 Bft) 96,23 %
01.10.2016 20:58 14,3 C 91 % 1009,8 hPa 0,0 l/m 1,0 km/h (0 Bft) O 89 0 min 0,000 mm 0,0 UV-I 0 W/m 12,8 C 14,3 C 1,6 km/h (1 Bft) 97,87 %
01.10.2016 21:00 14,4 C 91 % 1009,8 hPa 0,0 l/m 1,0 km/h (0 Bft) O 89 0 min 0,000 mm 0,0 UV-I 0 W/m 12,9 C 14,4 C 1,6 km/h (1 Bft) 97,22 %
01.10.2016 21:02 14,5 C 92 % 1009,8 hPa 0,0 l/m 1,1 km/h (1 Bft) O 89 0 min 0,000 mm 0,0 UV-I 0 W/m 13,2 C 14,5 C 1,6 km/h (1 Bft) 96,36 %
01.10.2016 21:04 14,6 C 92 % 1009,8 hPa 0,0 l/m 0,1 km/h (0 Bft) O 89 0 min 0,000 mm 0,0 UV-I 0 W/m 13,3 C 14,6 C 1,6 km/h (1 Bft) 96,00 %
01.10.2016 21:06 14,7 C 91 % 1009,8 hPa 0,0 l/m 0,0 km/h (0 Bft) O 89 0 min 0,000 mm 0,0 UV-I 0 W/m 13,2 C 14,7 C 1,6 km/h (1 Bft) 100,00 %
01.10.2016 21:08 14,6 C 91 % 1009,8 hPa 0,0 l/m 0,1 km/h (0 Bft) O 89 0 min 0,000 mm 0,0 UV-I 0 W/m 13,1 C 14,6 C 1,6 km/h (1 Bft) 100,00 %
01.10.2016 21:10 14,6 C 91 % 1009,8 hPa 0,0 l/m 0,1 km/h (0 Bft) O 89 0 min 0,000 mm 0,0 UV-I 0 W/m 13,1 C 14,6 C 1,6 km/h (1 Bft) 98,21 %
01.10.2016 21:12 14,5 C 91 % 1009,8 hPa 0,0 l/m 0,0 km/h (0 Bft) O 89 0 min 0,000 mm 0,0 UV-I 0 W/m 13,0 C 14,5 C 0,0 km/h (0 Bft) 100,00 %
01.10.2016 21:14 14,6 C 92 % 1009,8 hPa 0,0 l/m 0,0 km/h (0 Bft) O 89 0 min 0,000 mm 0,0 UV-I 0 W/m 13,3 C 14,6 C 0,0 km/h (0 Bft) 97,73 %
01.10.2016 21:16 14,5 C 91 % 1009,8 hPa 0,0 l/m 0,1 km/h (0 Bft) O 89 0 min 0,000 mm 0,0 UV-I 0 W/m 13,0 C 14,5 C 1,6 km/h (1 Bft) 98,00 %
01.10.2016 21:18 14,4 C 91 % 1009,8 hPa 0,0 l/m 0,1 km/h (0 Bft) O 89 0 min 0,000 mm 0,0 UV-I 0 W/m 12,9 C 14,4 C 1,6 km/h (1 Bft) 100,00 %
01.10.2016 21:20 14,3 C 91 % 1009,8 hPa 0,0 l/m 0,0 km/h (0 Bft) O 89 0 min 0,000 mm 0,0 UV-I 0 W/m 12,8 C 14,3 C 0,0 km/h (0 Bft) 97,37 %
01.10.2016 21:22 14,2 C 91 % 1009,8 hPa 0,0 l/m 0,0 km/h (0 Bft) O 89 0 min 0,000 mm 0,0 UV-I 0 W/m 12,8 C 14,2 C 0,0 km/h (0 Bft) 100,00 %
01.10.2016 21:24 14,2 C 92 % 1009,8 hPa 0,0 l/m 0,0 km/h (0 Bft) O 89 0 min 0,000 mm 0,0 UV-I 0 W/m 12,9 C 14,2 C 0,0 km/h (0 Bft) 100,00 %
01.10.2016 21:26 14,1 C 91 % 1009,8 hPa 0,0 l/m 0,0 km/h (0 Bft) O 89 0 min 0,000 mm 0,0 UV-I 0 W/m 12,7 C 14,1 C 1,6 km/h (1 Bft) 100,00 %
01.10.2016 21:28 13,9 C 91 % 1009,8 hPa 0,0 l/m 0,1 km/h (0 Bft) O 89 0 min 0,000 mm 0,0 UV-I 0 W/m 12,5 C 13,9 C 1,6 km/h (1 Bft) 95,74 %
01.10.2016 21:30 13,8 C 90 % 1009,8 hPa 0,0 l/m 0,0 km/h (0 Bft) O 89 0 min 0,000 mm 0,0 UV-I 0 W/m 12,2 C 13,8 C 0,0 km/h (0 Bft) 100,00 %
01.10.2016 21:32 13,7 C 91 % 1009,8 hPa 0,0 l/m 0,2 km/h (0 Bft) O 89 0 min 0,000 mm 0,0 UV-I 0 W/m 12,3 C 13,7 C 1,6 km/h (1 Bft) 100,00 %
01.10.2016 21:34 13,7 C 91 % 1009,7 hPa 0,0 l/m 0,9 km/h (0 Bft) O 89 0 min 0,000 mm 0,0 UV-I 0 W/m 12,3 C 13,7 C 1,6 km/h (1 Bft) 97,87 %
01.10.2016 21:36 13,7 C 92 % 1009,7 hPa 0,0 l/m 2,5 km/h (1 Bft) O 89 0 min 0,000 mm 0,0 UV-I 0 W/m 12,4 C 13,7 C 3,2 km/h (1 Bft) 100,00 %
01.10.2016 21:38 13,9 C 93 % 1009,7 hPa 0,0 l/m 2,3 km/h (1 Bft) O 90 0 min 0,000 mm 0,0 UV-I 0 W/m 12,8 C 13,9 C 4,8 km/h (1 Bft) 100,00 %
01.10.2016 21:40 14,1 C 93 % 1009,8 hPa 0,0 l/m 0,9 km/h (0 Bft) O 90 0 min 0,000 mm 0,0 UV-I 0 W/m 13,0 C 14,1 C 1,6 km/h (1 Bft) 100,00 %
01.10.2016 21:42 14,1 C 93 % 1009,9 hPa 0,0 l/m 2,4 km/h (1 Bft) O 90 0 min 0,000 mm 0,0 UV-I 0 W/m 13,0 C 14,1 C 3,2 km/h (1 Bft) 98,00 %
01.10.2016 21:44 14,1 C 92 % 1009,9 hPa 0,0 l/m 2,0 km/h (1 Bft) O 90 0 min 0,000 mm 0,0 UV-I 0 W/m 12,8 C 14,1 C 3,2 km/h (1 Bft) 100,00 %
01.10.2016 21:46 14,1 C 92 % 1009,9 hPa 0,0 l/m 1,3 km/h (1 Bft) O 90 0 min 0,000 mm 0,0 UV-I 0 W/m 12,8 C 14,1 C 3,2 km/h (1 Bft) 95,83 %
01.10.2016 21:48 14,0 C 92 % 1009,9 hPa 0,0 l/m 2,3 km/h (1 Bft) O 90 0 min 0,000 mm 0,0 UV-I 0 W/m 12,7 C 14,0 C 3,2 km/h (1 Bft) 100,00 %
01.10.2016 21:50 13,9 C 92 % 1009,8 hPa 0,0 l/m 3,7 km/h (1 Bft) S-SO 147 0 min 0,000 mm 0,0 UV-I 0 W/m 12,6 C 13,9 C 6,4 km/h (2 Bft) 100,00 %
01.10.2016 21:52 13,9 C 93 % 1009,9 hPa 0,0 l/m 2,7 km/h (1 Bft) S-SO 147 0 min 0,000 mm 0,0 UV-I 0 W/m 12,8 C 13,9 C 4,8 km/h (1 Bft) 98,00 %
01.10.2016 21:54 13,9 C 93 % 1009,9 hPa 0,0 l/m 2,2 km/h (1 Bft) S-SO 147 0 min 0,000 mm 0,0 UV-I 0 W/m 12,8 C 13,9 C 3,2 km/h (1 Bft) 100,00 %
01.10.2016 21:56 13,8 C 92 % 1009,9 hPa 0,0 l/m 2,1 km/h (1 Bft) S-SO 147 0 min 0,000 mm 0,0 UV-I 0 W/m 12,5 C 13,8 C 3,2 km/h (1 Bft) 100,00 %
01.10.2016 21:58 13,7 C 92 % 1009,9 hPa 0,0 l/m 2,4 km/h (1 Bft) S-SO 147 0 min 0,000 mm 0,0 UV-I 0 W/m 12,4 C 13,7 C 3,2 km/h (1 Bft) 100,00 %
01.10.2016 22:00 13,7 C 93 % 1009,9 hPa 0,0 l/m 1,8 km/h (1 Bft) S-SO 147 0 min 0,000 mm 0,0 UV-I 0 W/m 12,6 C 13,7 C 3,2 km/h (1 Bft) 100,00 %
01.10.2016 22:02 13,7 C 93 % 1010,0 hPa 0,0 l/m 2,5 km/h (1 Bft) S-SO 147 0 min 0,000 mm 0,0 UV-I 0 W/m 12,6 C 13,7 C 3,2 km/h (1 Bft) 100,00 %
01.10.2016 22:04 13,7 C 93 % 1010,0 hPa 0,0 l/m 2,8 km/h (1 Bft) S-SO 147 0 min 0,000 mm 0,0 UV-I 0 W/m 12,6 C 13,7 C 4,8 km/h (1 Bft) 95,74 %
01.10.2016 22:06 13,7 C 93 % 1009,9 hPa 0,0 l/m 2,6 km/h (1 Bft) S-SO 147 0 min 0,000 mm 0,0 UV-I 0 W/m 12,6 C 13,7 C 3,2 km/h (1 Bft) 97,87 %
01.10.2016 22:08 13,7 C 93 % 1010,0 hPa 0,0 l/m 2,8 km/h (1 Bft) S-SO 147 0 min 0,000 mm 0,0 UV-I 0 W/m 12,6 C 13,7 C 3,2 km/h (1 Bft) 98,00 %
01.10.2016 22:10 13,8 C 93 % 1010,1 hPa 0,0 l/m 3,5 km/h (1 Bft) S-SO 147 0 min 0,000 mm 0,0 UV-I 0 W/m 12,7 C 13,8 C 4,8 km/h (1 Bft) 100,00 %
01.10.2016 22:12 13,8 C 93 % 1010,1 hPa 0,0 l/m 3,8 km/h (1 Bft) S-SO 150 0 min 0,000 mm 0,0 UV-I 0 W/m 12,7 C 13,8 C 4,8 km/h (1 Bft) 100,00 %
01.10.2016 22:14 13,8 C 93 % 1010,1 hPa 0,0 l/m 3,1 km/h (1 Bft) S-SO 150 0 min 0,000 mm 0,0 UV-I 0 W/m 12,7 C 13,8 C 4,8 km/h (1 Bft) 98,44 %
01.10.2016 22:16 13,7 C 93 % 1010,1 hPa 0,0 l/m 3,2 km/h (1 Bft) S-SO 150 0 min 0,000 mm 0,0 UV-I 0 W/m 12,6 C 13,7 C 4,8 km/h (1 Bft) 100,00 %
01.10.2016 22:18 13,8 C 93 % 1010,2 hPa 0,0 l/m 2,8 km/h (1 Bft) S-SO 150 0 min 0,000 mm 0,0 UV-I 0 W/m 12,7 C 13,8 C 3,2 km/h (1 Bft) 98,39 %
01.10.2016 22:20 13,8 C 93 % 1010,2 hPa 0,0 l/m 2,9 km/h (1 Bft) S-SO 150 0 min 0,000 mm 0,0 UV-I 0 W/m 12,7 C 13,8 C 4,8 km/h (1 Bft) 100,00 %
01.10.2016 22:22 13,8 C 93 % 1010,2 hPa 0,0 l/m 2,7 km/h (1 Bft) S-SO 150 0 min 0,000 mm 0,0 UV-I 0 W/m 12,7 C 13,8 C 4,8 km/h (1 Bft) 100,00 %
01.10.2016 22:24 13,9 C 93 % 1010,2 hPa 0,0 l/m 3,3 km/h (1 Bft) S-SO 150 0 min 0,000 mm 0,0 UV-I 0 W/m 12,8 C 13,9 C 4,8 km/h (1 Bft) 100,00 %
01.10.2016 22:26 13,9 C 93 % 1010,3 hPa 0,0 l/m 3,0 km/h (1 Bft) S-SO 150 0 min 0,000 mm 0,0 UV-I 0 W/m 12,8 C 13,9 C 4,8 km/h (1 Bft) 97,87 %
01.10.2016 22:28 13,9 C 93 % 1010,2 hPa 0,0 l/m 2,5 km/h (1 Bft) S-SO 150 0 min 0,000 mm 0,0 UV-I 0 W/m 12,8 C 13,9 C 3,2 km/h (1 Bft) 97,37 %
01.10.2016 22:30 13,9 C 93 % 1010,3 hPa 0,0 l/m 2,6 km/h (1 Bft) S-SO 150 0 min 0,000 mm 0,0 UV-I 0 W/m 12,8 C 13,9 C 4,8 km/h (1 Bft) 100,00 %
01.10.2016 22:32 13,9 C 93 % 1010,3 hPa 0,0 l/m 3,1 km/h (1 Bft) S-SO 150 0 min 0,000 mm 0,0 UV-I 0 W/m 12,8 C 13,9 C 4,8 km/h (1 Bft) 95,74 %
01.10.2016 22:34 13,9 C 93 % 1010,3 hPa 0,0 l/m 5,0 km/h (1 Bft) S 182 0 min 0,000 mm 0,0 UV-I 0 W/m 12,8 C 13,9 C 8,0 km/h (2 Bft) 100,00 %
01.10.2016 22:36 13,9 C 93 % 1010,3 hPa 0,0 l/m 4,2 km/h (1 Bft) SW 234 0 min 0,000 mm 0,0 UV-I 0 W/m 12,8 C 13,9 C 6,4 km/h (2 Bft) 97,87 %
01.10.2016 22:38 13,9 C 93 % 1010,4 hPa 0,0 l/m 5,0 km/h (1 Bft) S-SW 213 0 min 0,000 mm 0,0 UV-I 0 W/m 12,8 C 13,9 C 8,0 km/h (2 Bft) 100,00 %
01.10.2016 22:40 13,9 C 93 % 1010,4 hPa 0,0 l/m 5,8 km/h (2 Bft) SW 226 0 min 0,000 mm 0,0 UV-I 0 W/m 12,8 C 13,9 C 8,0 km/h (2 Bft) 97,14 %
01.10.2016 22:42 13,9 C 93 % 1010,4 hPa 0,0 l/m 4,6 km/h (1 Bft) S-SW 199 0 min 0,000 mm 0,0 UV-I 0 W/m 12,8 C 13,9 C 6,4 km/h (2 Bft) 96,43 %
01.10.2016 22:44 14,1 C 93 % 1010,5 hPa 0,0 l/m 2,7 km/h (1 Bft) S-SW 199 0 min 0,000 mm 0,0 UV-I 0 W/m 13,0 C 14,1 C 4,8 km/h (1 Bft) 96,00 %
01.10.2016 22:46 14,1 C 93 % 1010,5 hPa 0,0 l/m 2,7 km/h (1 Bft) S-SW 199 0 min 0,000 mm 0,0 UV-I 0 W/m 13,0 C 14,1 C 4,8 km/h (1 Bft) 95,74 %
01.10.2016 22:48 14,2 C 92 % 1010,6 hPa 0,0 l/m 3,2 km/h (1 Bft) S-SW 199 0 min 0,000 mm 0,0 UV-I 0 W/m 12,9 C 14,2 C 4,8 km/h (1 Bft) 100,00 %
01.10.2016 22:50 14,1 C 92 % 1010,7 hPa 0,0 l/m 5,1 km/h (1 Bft) S 188 0 min 0,000 mm 0,0 UV-I 0 W/m 12,8 C 14,1 C 6,4 km/h (2 Bft) 96,00 %
01.10.2016 22:52 14,1 C 92 % 1010,6 hPa 0,0 l/m 5,7 km/h (1 Bft) S-SW 213 0 min 0,000 mm 0,0 UV-I 0 W/m 12,8 C 14,1 C 8,0 km/h (2 Bft) 95,74 %
01.10.2016 22:54 14,1 C 92 % 1010,7 hPa 0,0 l/m 4,9 km/h (1 Bft) S-SW 192 0 min 0,000 mm 0,0 UV-I 0 W/m 12,8 C 14,1 C 6,4 km/h (2 Bft) 97,87 %
01.10.2016 22:56 14,1 C 92 % 1010,7 hPa 0,0 l/m 6,6 km/h (2 Bft) S-SW 209 0 min 0,000 mm 0,0 UV-I 0 W/m 12,8 C 14,0 C 9,7 km/h (2 Bft) 98,11 %
01.10.2016 22:58 14,1 C 92 % 1010,7 hPa 0,0 l/m 5,2 km/h (1 Bft) SW 223 0 min 0,000 mm 0,0 UV-I 0 W/m 12,8 C 14,1 C 8,0 km/h (2 Bft) 97,56 %
01.10.2016 23:00 14,1 C 92 % 1010,7 hPa 0,0 l/m 4,8 km/h (1 Bft) SW 231 0 min 0,000 mm 0,0 UV-I 0 W/m 12,8 C 14,1 C 8,0 km/h (2 Bft) 98,00 %
01.10.2016 23:02 14,1 C 93 % 1010,7 hPa 0,0 l/m 7,5 km/h (2 Bft) W-SW 239 0 min 0,000 mm 0,0 UV-I 0 W/m 13,0 C 13,4 C 14,5 km/h (3 Bft) 97,44 %
01.10.2016 23:04 14,1 C 92 % 1010,7 hPa 0,0 l/m 4,6 km/h (1 Bft) SW 234 0 min 0,000 mm 0,0 UV-I 0 W/m 12,8 C 14,1 C 8,0 km/h (2 Bft) 98,00 %
01.10.2016 23:06 14,2 C 92 % 1010,7 hPa 0,0 l/m 5,7 km/h (1 Bft) S 169 0 min 0,000 mm 0,0 UV-I 0 W/m 12,9 C 14,2 C 8,0 km/h (2 Bft) 95,74 %
01.10.2016 23:08 14,2 C 92 % 1010,7 hPa 0,0 l/m 5,6 km/h (1 Bft) S 175 0 min 0,000 mm 0,0 UV-I 0 W/m 12,9 C 14,2 C 9,7 km/h (2 Bft) 96,23 %
01.10.2016 23:10 14,2 C 92 % 1010,7 hPa 0,0 l/m 5,3 km/h (1 Bft) S-SW 198 0 min 0,000 mm 0,0 UV-I 0 W/m 12,9 C 14,2 C 9,7 km/h (2 Bft) 97,37 %
01.10.2016 23:12 14,2 C 92 % 1010,8 hPa 0,0 l/m 5,4 km/h (1 Bft) S-SW 195 0 min 0,000 mm 0,0 UV-I 0 W/m 12,9 C 14,2 C 8,0 km/h (2 Bft) 98,21 %
01.10.2016 23:14 14,2 C 92 % 1010,9 hPa 0,0 l/m 4,1 km/h (1 Bft) S 178 0 min 0,000 mm 0,0 UV-I 0 W/m 12,9 C 14,2 C 6,4 km/h (2 Bft) 96,15 %
01.10.2016 23:16 14,1 C 92 % 1010,9 hPa 0,0 l/m 4,9 km/h (1 Bft) S 182 0 min 0,000 mm 0,0 UV-I 0 W/m 12,8 C 14,1 C 8,0 km/h (2 Bft) 98,53 %
01.10.2016 23:18 14,1 C 93 % 1010,9 hPa 0,0 l/m 4,9 km/h (1 Bft) S-SW 204 0 min 0,000 mm 0,0 UV-I 0 W/m 13,0 C 14,1 C 8,0 km/h (2 Bft) 95,12 %
01.10.2016 23:20 14,1 C 93 % 1010,9 hPa 0,0 l/m 7,0 km/h (2 Bft) S 174 0 min 0,000 mm 0,0 UV-I 0 W/m 13,0 C 13,7 C 11,3 km/h (2 Bft) 100,00 %
01.10.2016 23:22 14,1 C 93 % 1010,9 hPa 0,0 l/m 7,3 km/h (2 Bft) S 172 0 min 0,000 mm 0,0 UV-I 0 W/m 13,0 C 13,6 C 12,9 km/h (3 Bft) 100,00 %
01.10.2016 23:24 14,1 C 93 % 1010,9 hPa 0,0 l/m 5,1 km/h (1 Bft) S 190 0 min 0,000 mm 0,0 UV-I 0 W/m 13,0 C 14,1 C 9,7 km/h (2 Bft) 100,00 %
01.10.2016 23:26 14,1 C 93 % 1010,9 hPa 0,0 l/m 4,7 km/h (1 Bft) S 182 0 min 0,000 mm 0,0 UV-I 0 W/m 13,0 C 14,1 C 6,4 km/h (2 Bft) 100,00 %
01.10.2016 23:28 14,1 C 93 % 1011,0 hPa 0,0 l/m 6,3 km/h (2 Bft) S 190 0 min 0,000 mm 0,0 UV-I 0 W/m 13,0 C 14,1 C 9,7 km/h (2 Bft) 97,87 %
01.10.2016 23:30 14,1 C 93 % 1011,0 hPa 0,0 l/m 5,5 km/h (1 Bft) S 175 0 min 0,000 mm 0,0 UV-I 0 W/m 13,0 C 14,1 C 8,0 km/h (2 Bft) 100,00 %
01.10.2016 23:32 14,1 C 93 % 1011,1 hPa 0,0 l/m 6,0 km/h (2 Bft) S 190 0 min 0,000 mm 0,0 UV-I 0 W/m 13,0 C 14,1 C 8,0 km/h (2 Bft) 100,00 %
01.10.2016 23:34 14,0 C 93 % 1011,1 hPa 0,0 l/m 6,4 km/h (2 Bft) S 185 0 min 0,000 mm 0,0 UV-I 0 W/m 12,9 C 14,0 C 8,0 km/h (2 Bft) 100,00 %
01.10.2016 23:36 14,0 C 93 % 1011,1 hPa 0,0 l/m 6,6 km/h (2 Bft) S 182 0 min 0,000 mm 0,0 UV-I 0 W/m 12,9 C 13,9 C 9,7 km/h (2 Bft) 100,00 %
01.10.2016 23:38 14,0 C 93 % 1011,1 hPa 0,0 l/m 4,2 km/h (1 Bft) S 171 0 min 0,000 mm 0,0 UV-I 0 W/m 12,9 C 14,0 C 6,4 km/h (2 Bft) 100,00 %
01.10.2016 23:40 14,0 C 93 % 1011,1 hPa 0,0 l/m 5,9 km/h (2 Bft) S-SO 152 0 min 0,000 mm 0,0 UV-I 0 W/m 12,9 C 14,0 C 11,3 km/h (2 Bft) 100,00 %
01.10.2016 23:42 14,0 C 93 % 1011,1 hPa 0,0 l/m 4,9 km/h (1 Bft) S 184 0 min 0,000 mm 0,0 UV-I 0 W/m 12,9 C 14,0 C 8,0 km/h (2 Bft) 100,00 %
01.10.2016 23:44 14,0 C 93 % 1011,1 hPa 0,0 l/m 5,3 km/h (1 Bft) S 176 0 min 0,000 mm 0,0 UV-I 0 W/m 12,9 C 14,0 C 9,7 km/h (2 Bft) 100,00 %
01.10.2016 23:46 13,9 C 93 % 1011,1 hPa 0,0 l/m 5,8 km/h (2 Bft) S-SW 199 0 min 0,000 mm 0,0 UV-I 0 W/m 12,8 C 13,9 C 8,0 km/h (2 Bft) 100,00 %
01.10.2016 23:48 13,9 C 93 % 1011,2 hPa 0,0 l/m 5,8 km/h (2 Bft) S-SW 202 0 min 0,000 mm 0,0 UV-I 0 W/m 12,8 C 13,9 C 8,0 km/h (2 Bft) 100,00 %
01.10.2016 23:50 13,9 C 93 % 1011,2 hPa 0,0 l/m 6,5 km/h (2 Bft) S-SW 209 0 min 0,000 mm 0,0 UV-I 0 W/m 12,8 C 13,9 C 9,7 km/h (2 Bft) 100,00 %
01.10.2016 23:52 13,9 C 93 % 1011,3 hPa 0,0 l/m 6,1 km/h (2 Bft) S-SW 196 0 min 0,000 mm 0,0 UV-I 0 W/m 12,8 C 13,9 C 9,7 km/h (2 Bft) 100,00 %
01.10.2016 23:54 13,9 C 93 % 1011,2 hPa 0,0 l/m 4,7 km/h (1 Bft) S-SW 193 0 min 0,000 mm 0,0 UV-I 0 W/m 12,8 C 13,9 C 8,0 km/h (2 Bft) 100,00 %
01.10.2016 23:56 13,8 C 93 % 1011,2 hPa 0,0 l/m 5,2 km/h (1 Bft) S-SO 167 0 min 0,000 mm 0,0 UV-I 0 W/m 12,7 C 13,8 C 8,0 km/h (2 Bft) 100,00 %
01.10.2016 23:58 13,8 C 93 % 1011,2 hPa 0,0 l/m 4,9 km/h (1 Bft) S 190 0 min 0,000 mm 0,0 UV-I 0 W/m 12,7 C 13,8 C 8,0 km/h (2 Bft) 100,00 %
_ Min-Zeit 06:46 16:08 17:40 - 01:06 - - - - - - 06:46 06:46 01:06 03:02
Minimum _ 9,1 C 57 % 1008,9 hPa - 0,0 km/h (0 Bft) - - - - - - 8,3 C 9,1 C 0,0 km/h (0 Bft) 91,49 %
_ Max-Zeit 14:22 06:52 00:00 00:00 10:34 - - 12:00 14:00 13:12 14:06 18:04 14:22 10:24 00:00
Maximum _ 22,0 C 97 % 1013,8 hPa 0,0 l/m 7,5 km/h
NO (2 Bft)
- - 5 min 0,330 mm 3,1 UV-I 636 W/m 15,1 C 22,0 C 14,5 km/h
N-NO (3 Bft)
100,00 %
Durchschnitt _ 15,1 C 84 % 1011,0 hPa #0,0 l/m 1,7 km/h (1 Bft) N-NO - #8:42 h #2,134 mm 1,8 UV-I 308 W/m 12,2 C 15,1 C 3,3 km/h (1 Bft) 98,64 %